Wetterdaten: Mittwoch, 02.03.2016
Datum Zeit Temp. Aussen Temp. o. S. +5cm Feuchte Auss BlattFeu 1 Luftdruck Regen Sonnenschein Regendauer Solar Windben Empfang
02.03.2016 00:00 5,6 C 5,6 C 4,4 C 98 % 15 lf 1005,6 hPa 0,0 l/m 0 min 0 min 0 W/m 23,0 km/h (4 Bft) 95,74 %
02.03.2016 00:02 5,7 C 5,6 C 4,4 C 98 % 15 lf 1005,6 hPa 0,0 l/m 0 min 0 min 0 W/m 23,0 km/h (4 Bft) 97,78 %
02.03.2016 00:04 5,7 C 5,6 C 4,4 C 98 % 15 lf 1005,6 hPa 0,0 l/m 0 min 0 min 0 W/m 25,1 km/h (4 Bft) 94,59 %
02.03.2016 00:06 5,7 C 5,6 C 4,4 C 98 % 15 lf 1005,5 hPa 0,0 l/m 0 min 0 min 0 W/m 31,4 km/h (5 Bft) 93,62 %
02.03.2016 00:08 5,7 C 5,6 C 4,4 C 98 % 15 lf 1005,4 hPa 0,0 l/m 0 min 0 min 0 W/m 25,1 km/h (4 Bft) 97,87 %
02.03.2016 00:10 5,7 C 5,6 C 4,4 C 98 % 15 lf 1005,4 hPa 0,0 l/m 0 min 0 min 0 W/m 20,9 km/h (4 Bft) 93,62 %
02.03.2016 00:12 5,7 C 5,6 C 4,4 C 98 % 15 lf 1005,4 hPa 0,0 l/m 0 min 0 min 0 W/m 14,6 km/h (3 Bft) 89,36 %
02.03.2016 00:14 5,7 C 5,6 C 4,4 C 98 % 15 lf 1005,4 hPa 0,0 l/m 0 min 0 min 0 W/m 20,9 km/h (4 Bft) 95,65 %
02.03.2016 00:16 5,7 C 5,6 C 4,4 C 98 % 15 lf 1005,4 hPa 0,0 l/m 0 min 0 min 0 W/m 20,9 km/h (4 Bft) 95,74 %
02.03.2016 00:18 5,8 C 5,6 C 4,4 C 98 % 15 lf 1005,3 hPa 0,0 l/m 0 min 0 min 0 W/m 23,0 km/h (4 Bft) 95,74 %
02.03.2016 00:20 5,8 C 5,6 C 4,4 C 98 % 15 lf 1005,3 hPa 0,0 l/m 0 min 0 min 0 W/m 20,9 km/h (4 Bft) 97,87 %
02.03.2016 00:22 5,8 C 5,6 C 4,4 C 98 % 15 lf 1005,3 hPa 0,0 l/m 0 min 0 min 0 W/m 25,1 km/h (4 Bft) 95,74 %
02.03.2016 00:24 5,8 C 5,6 C 4,4 C 97 % 15 lf 1005,4 hPa 0,0 l/m 0 min 0 min 0 W/m 14,6 km/h (3 Bft) 93,62 %
02.03.2016 00:26 5,8 C 6,1 C 4,4 C 97 % 15 lf 1005,3 hPa 0,0 l/m 0 min 0 min 0 W/m 25,1 km/h (4 Bft) 94,34 %
02.03.2016 00:28 5,8 C 6,1 C 4,4 C 97 % 15 lf 1005,3 hPa 0,0 l/m 0 min 0 min 0 W/m 20,9 km/h (4 Bft) 95,65 %
02.03.2016 00:30 5,8 C 6,1 C 4,4 C 97 % 15 lf 1005,3 hPa 0,0 l/m 0 min 0 min 0 W/m 31,4 km/h (5 Bft) 93,62 %
02.03.2016 00:32 5,9 C 6,1 C 4,4 C 97 % 15 lf 1005,2 hPa 0,0 l/m 0 min 0 min 0 W/m 23,0 km/h (4 Bft) 93,62 %
02.03.2016 00:34 5,9 C 6,1 C 4,4 C 97 % 15 lf 1005,2 hPa 0,0 l/m 0 min 0 min 0 W/m 23,0 km/h (4 Bft) 95,74 %
02.03.2016 00:36 5,9 C 6,1 C 4,4 C 97 % 15 lf 1005,2 hPa 0,0 l/m 0 min 0 min 0 W/m 23,0 km/h (4 Bft) 95,74 %
02.03.2016 00:38 5,9 C 6,1 C 4,4 C 97 % 15 lf 1005,1 hPa 0,0 l/m 0 min 0 min 0 W/m 23,0 km/h (4 Bft) 95,74 %
02.03.2016 00:40 5,9 C 6,1 C 4,4 C 97 % 15 lf 1005,1 hPa 0,0 l/m 0 min 0 min 0 W/m 14,6 km/h (3 Bft) 93,48 %
02.03.2016 00:42 5,9 C 6,1 C 4,4 C 97 % 15 lf 1005,1 hPa 0,0 l/m 0 min 0 min 0 W/m 18,8 km/h (3 Bft) 97,87 %
02.03.2016 00:44 6,0 C 6,1 C 4,4 C 98 % 15 lf 1005,0 hPa 0,0 l/m 0 min 0 min 0 W/m 23,0 km/h (4 Bft) 97,87 %
02.03.2016 00:46 6,0 C 6,1 C 4,4 C 98 % 15 lf 1005,0 hPa 0,0 l/m 0 min 0 min 0 W/m 27,2 km/h (4 Bft) 95,74 %
02.03.2016 00:48 6,0 C 6,1 C 4,4 C 98 % 15 lf 1005,0 hPa 0,0 l/m 0 min 0 min 0 W/m 18,8 km/h (3 Bft) 97,87 %
02.03.2016 00:50 6,1 C 6,1 C 4,4 C 98 % 15 lf 1005,0 hPa 0,0 l/m 0 min 0 min 0 W/m 20,9 km/h (4 Bft) 95,74 %
02.03.2016 00:52 6,1 C 6,1 C 4,4 C 98 % 15 lf 1005,0 hPa 0,0 l/m 0 min 0 min 0 W/m 20,9 km/h (4 Bft) 93,48 %
02.03.2016 00:54 6,1 C 6,1 C 4,4 C 98 % 15 lf 1004,9 hPa 0,0 l/m 0 min 0 min 0 W/m 18,8 km/h (3 Bft) 100,00 %
02.03.2016 00:56 6,1 C 6,1 C 4,4 C 98 % 15 lf 1005,0 hPa 0,0 l/m 0 min 0 min 0 W/m 25,1 km/h (4 Bft) 95,74 %
02.03.2016 00:58 6,1 C 6,1 C 4,4 C 98 % 15 lf 1004,8 hPa 0,0 l/m 0 min 0 min 0 W/m 20,9 km/h (4 Bft) 100,00 %
02.03.2016 01:00 6,1 C 6,1 C 4,4 C 98 % 15 lf 1004,8 hPa 0,0 l/m 0 min 0 min 0 W/m 18,8 km/h (3 Bft) 100,00 %
02.03.2016 01:02 6,1 C 6,1 C 4,4 C 98 % 15 lf 1004,7 hPa 0,0 l/m 0 min 0 min 0 W/m 20,9 km/h (4 Bft) 100,00 %
02.03.2016 01:04 6,1 C 6,1 C 4,4 C 98 % 15 lf 1004,7 hPa 0,0 l/m 0 min 0 min 0 W/m 18,8 km/h (3 Bft) 97,87 %
02.03.2016 01:06 6,1 C 6,1 C 4,4 C 98 % 15 lf 1004,7 hPa 0,0 l/m 0 min 0 min 0 W/m 14,6 km/h (3 Bft) 95,74 %
02.03.2016 01:08 6,2 C 6,1 C 4,4 C 98 % 15 lf 1004,5 hPa 0,0 l/m 0 min 0 min 0 W/m 23,0 km/h (4 Bft) 100,00 %
02.03.2016 01:10 6,2 C 6,1 C 4,4 C 98 % 15 lf 1004,5 hPa 0,0 l/m 0 min 0 min 0 W/m 23,0 km/h (4 Bft) 100,00 %
02.03.2016 01:12 6,2 C 6,1 C 4,4 C 98 % 15 lf 1004,5 hPa 0,0 l/m 0 min 0 min 0 W/m 16,7 km/h (3 Bft) 97,87 %
02.03.2016 01:14 6,2 C 6,1 C 4,4 C 98 % 15 lf 1004,4 hPa 0,0 l/m 0 min 0 min 0 W/m 18,8 km/h (3 Bft) 97,83 %
02.03.2016 01:16 6,2 C 6,1 C 4,4 C 98 % 15 lf 1004,5 hPa 0,0 l/m 0 min 0 min 0 W/m 16,7 km/h (3 Bft) 93,62 %
02.03.2016 01:18 6,2 C 6,1 C 5,0 C 98 % 15 lf 1004,5 hPa 0,0 l/m 0 min 0 min 0 W/m 23,0 km/h (4 Bft) 100,00 %
02.03.2016 01:20 6,2 C 6,1 C 5,0 C 98 % 15 lf 1004,4 hPa 0,0 l/m 0 min 0 min 0 W/m 20,9 km/h (4 Bft) 100,00 %
02.03.2016 01:22 6,3 C 6,1 C 5,0 C 98 % 15 lf 1004,4 hPa 0,0 l/m 0 min 2 min 0 W/m 14,6 km/h (3 Bft) 97,87 %
02.03.2016 01:24 6,3 C 6,1 C 5,0 C 98 % 15 lf 1004,4 hPa 0,0 l/m 0 min 2 min 0 W/m 16,7 km/h (3 Bft) 100,00 %
02.03.2016 01:26 6,3 C 6,1 C 5,0 C 98 % 15 lf 1004,4 hPa 0,0 l/m 0 min 2 min 0 W/m 18,8 km/h (3 Bft) 97,83 %
02.03.2016 01:28 6,3 C 6,1 C 5,0 C 98 % 15 lf 1004,4 hPa 0,0 l/m 0 min 0 min 0 W/m 14,6 km/h (3 Bft) 100,00 %
02.03.2016 01:30 6,3 C 6,1 C 5,0 C 98 % 15 lf 1004,3 hPa 0,0 l/m 0 min 0 min 0 W/m 16,7 km/h (3 Bft) 100,00 %
02.03.2016 01:32 6,3 C 6,1 C 5,0 C 98 % 15 lf 1004,3 hPa 0,0 l/m 0 min 0 min 0 W/m 18,8 km/h (3 Bft) 97,87 %
02.03.2016 01:34 6,3 C 6,1 C 5,0 C 98 % 15 lf 1004,2 hPa 0,0 l/m 0 min 2 min 0 W/m 16,7 km/h (3 Bft) 93,62 %
02.03.2016 01:36 6,3 C 6,1 C 5,0 C 98 % 15 lf 1004,2 hPa 0,0 l/m 0 min 0 min 0 W/m 20,9 km/h (4 Bft) 93,62 %
02.03.2016 01:38 6,4 C 6,1 C 5,0 C 98 % 15 lf 1004,2 hPa 0,0 l/m 0 min 0 min 0 W/m 20,9 km/h (4 Bft) 95,65 %
02.03.2016 01:40 6,4 C 6,1 C 5,0 C 98 % 15 lf 1004,1 hPa 0,0 l/m 0 min 0 min 0 W/m 18,8 km/h (3 Bft) 93,62 %
02.03.2016 01:42 6,4 C 6,1 C 5,0 C 98 % 15 lf 1004,1 hPa 0,0 l/m 0 min 0 min 0 W/m 14,6 km/h (3 Bft) 93,62 %
02.03.2016 01:44 6,4 C 6,1 C 5,0 C 98 % 15 lf 1004,1 hPa 0,0 l/m 0 min 0 min 0 W/m 23,0 km/h (4 Bft) 93,62 %
02.03.2016 01:46 6,4 C 6,1 C 5,0 C 98 % 15 lf 1004,1 hPa 0,0 l/m 0 min 2 min 0 W/m 18,8 km/h (3 Bft) 95,74 %
02.03.2016 01:48 6,4 C 6,1 C 5,0 C 98 % 15 lf 1004,0 hPa 0,0 l/m 0 min 0 min 0 W/m 14,6 km/h (3 Bft) 93,48 %
02.03.2016 01:50 6,4 C 6,1 C 5,0 C 98 % 15 lf 1004,0 hPa 0,0 l/m 0 min 0 min 0 W/m 23,0 km/h (4 Bft) 93,62 %
02.03.2016 01:52 6,4 C 6,1 C 5,0 C 98 % 15 lf 1004,0 hPa 0,2 l/m 0 min 2 min 0 W/m 16,7 km/h (3 Bft) 93,62 %
02.03.2016 01:54 6,4 C 6,7 C 5,0 C 98 % 15 lf 1003,9 hPa 0,0 l/m 0 min 2 min 0 W/m 20,9 km/h (4 Bft) 95,74 %
02.03.2016 01:56 6,4 C 6,7 C 5,0 C 98 % 15 lf 1003,8 hPa 0,0 l/m 0 min 0 min 0 W/m 18,8 km/h (3 Bft) 93,62 %
02.03.2016 01:58 6,4 C 6,7 C 5,0 C 98 % 15 lf 1003,8 hPa 0,0 l/m 0 min 2 min 0 W/m 23,0 km/h (4 Bft) 95,74 %
02.03.2016 02:00 6,4 C 6,7 C 5,0 C 98 % 15 lf 1003,7 hPa 0,0 l/m 0 min 0 min 0 W/m 16,7 km/h (3 Bft) 91,30 %
02.03.2016 02:02 6,4 C 6,7 C 5,0 C 98 % 15 lf 1003,7 hPa 0,0 l/m 0 min 0 min 0 W/m 14,6 km/h (3 Bft) 91,49 %
02.03.2016 02:04 6,4 C 6,7 C 5,0 C 98 % 15 lf 1003,6 hPa 0,0 l/m 0 min 0 min 0 W/m 16,7 km/h (3 Bft) 89,36 %
02.03.2016 02:06 6,4 C 6,7 C 5,0 C 98 % 15 lf 1003,6 hPa 0,0 l/m 0 min 0 min 0 W/m 23,0 km/h (4 Bft) 91,49 %
02.03.2016 02:08 6,5 C 6,7 C 5,0 C 98 % 15 lf 1003,6 hPa 0,0 l/m 0 min 0 min 0 W/m 20,9 km/h (4 Bft) 91,49 %
02.03.2016 02:10 6,5 C 6,7 C 5,0 C 98 % 15 lf 1003,5 hPa 0,0 l/m 0 min 0 min 0 W/m 14,6 km/h (3 Bft) 91,49 %
02.03.2016 02:12 6,5 C 6,7 C 5,0 C 98 % 15 lf 1003,4 hPa 0,0 l/m 0 min 0 min 0 W/m 20,9 km/h (4 Bft) 93,48 %
02.03.2016 02:14 6,5 C 6,7 C 5,0 C 98 % 15 lf 1003,4 hPa 0,0 l/m 0 min 0 min 0 W/m 14,6 km/h (3 Bft) 93,62 %
02.03.2016 02:16 6,5 C 6,7 C 5,0 C 98 % 15 lf 1003,4 hPa 0,0 l/m 0 min 0 min 0 W/m 20,9 km/h (4 Bft) 87,23 %
02.03.2016 02:18 6,6 C 6,7 C 5,0 C 98 % 15 lf 1003,3 hPa 0,0 l/m 0 min 0 min 0 W/m 16,7 km/h (3 Bft) 95,74 %
02.03.2016 02:20 6,6 C 6,7 C 5,0 C 98 % 15 lf 1003,3 hPa 0,0 l/m 0 min 0 min 0 W/m 16,7 km/h (3 Bft) 93,62 %
02.03.2016 02:22 6,6 C 6,7 C 5,0 C 98 % 15 lf 1003,2 hPa 0,0 l/m 0 min 0 min 0 W/m 20,9 km/h (4 Bft) 93,62 %
02.03.2016 02:24 6,6 C 6,7 C 5,0 C 98 % 15 lf 1003,1 hPa 0,0 l/m 0 min 0 min 0 W/m 18,8 km/h (3 Bft) 93,48 %
02.03.2016 02:26 6,6 C 6,7 C 5,0 C 98 % 15 lf 1003,0 hPa 0,0 l/m 0 min 2 min 0 W/m 18,8 km/h (3 Bft) 97,87 %
02.03.2016 02:28 6,6 C 6,7 C 5,0 C 98 % 15 lf 1003,0 hPa 0,0 l/m 0 min 0 min 0 W/m 23,0 km/h (4 Bft) 97,87 %
02.03.2016 02:30 6,6 C 6,7 C 5,0 C 98 % 15 lf 1002,9 hPa 0,0 l/m 0 min 0 min 0 W/m 20,9 km/h (4 Bft) 95,74 %
02.03.2016 02:32 6,7 C 6,7 C 5,0 C 98 % 15 lf 1003,0 hPa 0,0 l/m 0 min 0 min 0 W/m 27,2 km/h (4 Bft) 97,87 %
02.03.2016 02:34 6,7 C 6,7 C 5,0 C 98 % 15 lf 1002,9 hPa 0,0 l/m 0 min 0 min 0 W/m 25,1 km/h (4 Bft) 95,65 %
02.03.2016 02:36 6,7 C 6,7 C 5,0 C 98 % 15 lf 1002,9 hPa 0,0 l/m 0 min 0 min 0 W/m 31,4 km/h (5 Bft) 97,87 %
02.03.2016 02:38 6,7 C 6,7 C 5,0 C 98 % 15 lf 1002,9 hPa 0,0 l/m 0 min 0 min 0 W/m 18,8 km/h (3 Bft) 93,62 %
02.03.2016 02:40 6,7 C 6,7 C 5,0 C 98 % 15 lf 1002,8 hPa 0,0 l/m 0 min 0 min 0 W/m 25,1 km/h (4 Bft) 100,00 %
02.03.2016 02:42 6,7 C 6,7 C 5,0 C 98 % 15 lf 1002,8 hPa 0,0 l/m 0 min 0 min 0 W/m 27,2 km/h (4 Bft) 100,00 %
02.03.2016 02:44 6,7 C 6,7 C 5,0 C 98 % 15 lf 1002,8 hPa 0,0 l/m 0 min 0 min 0 W/m 18,8 km/h (3 Bft) 100,00 %
02.03.2016 02:46 6,7 C 6,7 C 5,0 C 98 % 15 lf 1002,9 hPa 0,0 l/m 0 min 0 min 0 W/m 20,9 km/h (4 Bft) 95,74 %
02.03.2016 02:48 6,8 C 6,7 C 5,0 C 98 % 15 lf 1002,8 hPa 0,0 l/m 0 min 0 min 0 W/m 33,5 km/h (5 Bft) 100,00 %
02.03.2016 02:50 6,8 C 6,7 C 5,6 C 98 % 15 lf 1002,7 hPa 0,0 l/m 0 min 0 min 0 W/m 37,7 km/h (5 Bft) 100,00 %
02.03.2016 02:52 6,8 C 6,7 C 5,6 C 98 % 15 lf 1002,7 hPa 0,0 l/m 0 min 0 min 0 W/m 25,1 km/h (4 Bft) 100,00 %
02.03.2016 02:54 6,8 C 6,7 C 5,6 C 98 % 15 lf 1002,7 hPa 0,0 l/m 0 min 0 min 0 W/m 29,3 km/h (5 Bft) 97,87 %
02.03.2016 02:56 6,8 C 6,7 C 5,6 C 98 % 15 lf 1002,7 hPa 0,0 l/m 0 min 0 min 0 W/m 18,8 km/h (3 Bft) 95,74 %
02.03.2016 02:58 6,8 C 6,7 C 5,6 C 98 % 15 lf 1002,7 hPa 0,0 l/m 0 min 0 min 0 W/m 20,9 km/h (4 Bft) 100,00 %
02.03.2016 03:00 6,8 C 6,7 C 5,6 C 98 % 15 lf 1002,6 hPa 0,0 l/m 0 min 0 min 0 W/m 31,4 km/h (5 Bft) 100,00 %
02.03.2016 03:02 6,9 C 6,7 C 5,6 C 98 % 15 lf 1002,6 hPa 0,0 l/m 0 min 0 min 0 W/m 25,1 km/h (4 Bft) 97,87 %
02.03.2016 03:04 6,9 C 6,7 C 5,6 C 98 % 15 lf 1002,4 hPa 0,0 l/m 0 min 0 min 0 W/m 29,3 km/h (5 Bft) 100,00 %
02.03.2016 03:06 6,9 C 6,7 C 5,6 C 98 % 15 lf 1002,5 hPa 0,0 l/m 0 min 0 min 0 W/m 23,0 km/h (4 Bft) 97,87 %
02.03.2016 03:08 6,9 C 6,7 C 5,6 C 98 % 15 lf 1002,4 hPa 0,0 l/m 0 min 0 min 0 W/m 37,7 km/h (5 Bft) 97,87 %
02.03.2016 03:10 6,9 C 6,7 C 5,6 C 98 % 15 lf 1002,4 hPa 0,0 l/m 0 min 0 min 0 W/m 31,4 km/h (5 Bft) 100,00 %
02.03.2016 03:12 6,9 C 6,7 C 5,6 C 98 % 15 lf 1002,4 hPa 0,0 l/m 0 min 0 min 0 W/m 25,1 km/h (4 Bft) 100,00 %
02.03.2016 03:14 6,9 C 6,7 C 5,6 C 98 % 15 lf 1002,3 hPa 0,0 l/m 0 min 0 min 0 W/m 27,2 km/h (4 Bft) 97,87 %
02.03.2016 03:16 6,9 C 6,7 C 5,6 C 98 % 15 lf 1002,2 hPa 0,0 l/m 0 min 0 min 0 W/m 27,2 km/h (4 Bft) 97,87 %
02.03.2016 03:18 6,9 C 6,7 C 5,6 C 98 % 15 lf 1002,2 hPa 0,0 l/m 0 min 0 min 0 W/m 29,3 km/h (5 Bft) 100,00 %
02.03.2016 03:20 6,9 C 6,7 C 5,6 C 98 % 15 lf 1002,1 hPa 0,0 l/m 0 min 0 min 0 W/m 39,7 km/h (6 Bft) 95,74 %
02.03.2016 03:22 6,9 C 6,7 C 5,6 C 98 % 15 lf 1002,2 hPa 0,0 l/m 0 min 0 min 0 W/m 27,2 km/h (4 Bft) 100,00 %
02.03.2016 03:24 6,9 C 6,7 C 5,6 C 98 % 15 lf 1002,0 hPa 0,0 l/m 0 min 0 min 0 W/m 37,7 km/h (5 Bft) 100,00 %
02.03.2016 03:26 6,9 C 6,7 C 5,6 C 98 % 15 lf 1002,0 hPa 0,0 l/m 0 min 0 min 0 W/m 35,6 km/h (5 Bft) 100,00 %
02.03.2016 03:28 6,9 C 6,7 C 5,0 C 98 % 15 lf 1002,0 hPa 0,0 l/m 0 min 0 min 0 W/m 25,1 km/h (4 Bft) 100,00 %
02.03.2016 03:30 6,9 C 7,2 C 5,0 C 98 % 15 lf 1001,9 hPa 0,0 l/m 0 min 0 min 0 W/m 33,5 km/h (5 Bft) 97,87 %
02.03.2016 03:32 6,9 C 7,2 C 5,6 C 98 % 15 lf 1001,9 hPa 0,0 l/m 0 min 0 min 0 W/m 25,1 km/h (4 Bft) 100,00 %
02.03.2016 03:34 6,9 C 7,2 C 5,6 C 98 % 15 lf 1001,7 hPa 0,0 l/m 0 min 0 min 0 W/m 31,4 km/h (5 Bft) 97,83 %
02.03.2016 03:36 6,9 C 7,2 C 5,0 C 98 % 15 lf 1001,8 hPa 0,0 l/m 0 min 0 min 0 W/m 23,0 km/h (4 Bft) 97,87 %
02.03.2016 03:38 6,9 C 6,7 C 5,0 C 98 % 15 lf 1001,8 hPa 0,0 l/m 0 min 0 min 0 W/m 25,1 km/h (4 Bft) 100,00 %
02.03.2016 03:40 6,9 C 6,7 C 5,0 C 98 % 15 lf 1001,7 hPa 0,0 l/m 0 min 0 min 0 W/m 25,1 km/h (4 Bft) 97,87 %
02.03.2016 03:42 6,9 C 6,7 C 5,0 C 98 % 15 lf 1001,7 hPa 0,0 l/m 0 min 0 min 0 W/m 31,4 km/h (5 Bft) 100,00 %
02.03.2016 03:44 7,0 C 7,2 C 5,0 C 98 % 15 lf 1001,6 hPa 0,0 l/m 0 min 0 min 0 W/m 25,1 km/h (4 Bft) 97,87 %
02.03.2016 03:46 7,0 C 7,2 C 5,0 C 98 % 15 lf 1001,6 hPa 0,0 l/m 0 min 0 min 0 W/m 27,2 km/h (4 Bft) 95,65 %
02.03.2016 03:48 7,0 C 6,7 C 5,0 C 98 % 15 lf 1001,5 hPa 0,0 l/m 0 min 0 min 0 W/m 31,4 km/h (5 Bft) 100,00 %
02.03.2016 03:50 7,0 C 6,7 C 5,6 C 98 % 15 lf 1001,5 hPa 0,0 l/m 0 min 0 min 0 W/m 20,9 km/h (4 Bft) 95,74 %
02.03.2016 03:52 7,0 C 6,7 C 5,0 C 98 % 15 lf 1001,5 hPa 0,0 l/m 0 min 0 min 0 W/m 23,0 km/h (4 Bft) 95,74 %
02.03.2016 03:54 7,0 C 7,2 C 5,0 C 98 % 15 lf 1001,5 hPa 0,0 l/m 0 min 0 min 0 W/m 27,2 km/h (4 Bft) 95,74 %
02.03.2016 03:56 7,0 C 7,2 C 5,0 C 98 % 15 lf 1001,4 hPa 0,0 l/m 0 min 0 min 0 W/m 25,1 km/h (4 Bft) 93,62 %
02.03.2016 03:58 7,1 C 7,2 C 5,0 C 98 % 15 lf 1001,5 hPa 0,0 l/m 0 min 0 min 0 W/m 27,2 km/h (4 Bft) 95,65 %
02.03.2016 04:00 7,1 C 7,2 C 5,6 C 98 % 15 lf 1001,3 hPa 0,0 l/m 0 min 0 min 0 W/m 27,2 km/h (4 Bft) 95,74 %
02.03.2016 04:02 7,1 C 7,2 C 5,6 C 98 % 15 lf 1001,3 hPa 0,0 l/m 0 min 0 min 0 W/m 18,8 km/h (3 Bft) 96,77 %
02.03.2016 04:07 7,1 C 7,2 C 5,6 C 97 % 15 lf 1001,3 hPa 0,0 l/m 0 min 0 min 0 W/m 23,0 km/h (4 Bft) 100,00 %
02.03.2016 04:08 7,1 C 7,2 C 5,6 C 97 % 15 lf 1001,3 hPa 0,0 l/m 0 min 0 min 0 W/m 39,7 km/h (6 Bft) 95,83 %
02.03.2016 04:13 7,2 C 7,2 C 5,6 C 97 % 15 lf 1001,3 hPa 0,0 l/m 0 min 2 min 0 W/m 29,3 km/h (5 Bft) 94,29 %
02.03.2016 04:14 7,2 C 7,2 C 5,6 C 97 % 15 lf 1001,3 hPa 0,0 l/m 0 min 1 min 0 W/m 29,3 km/h (5 Bft) 91,30 %
02.03.2016 04:16 7,2 C 7,2 C 5,6 C 97 % 15 lf 1001,2 hPa 0,0 l/m 0 min 2 min 0 W/m 29,3 km/h (5 Bft) 93,62 %
02.03.2016 04:18 7,3 C 6,7 C 5,6 C 97 % 15 lf 1001,2 hPa 0,0 l/m 0 min 2 min 0 W/m 25,1 km/h (4 Bft) 95,74 %
02.03.2016 04:20 7,3 C 6,7 C 5,6 C 97 % 15 lf 1001,2 hPa 0,0 l/m 0 min 2 min 0 W/m 18,8 km/h (3 Bft) 91,49 %
02.03.2016 04:22 7,3 C 6,7 C 5,6 C 97 % 15 lf 1001,2 hPa 0,0 l/m 0 min 0 min 0 W/m 23,0 km/h (4 Bft) 93,48 %
02.03.2016 04:24 7,3 C 6,7 C 5,6 C 97 % 15 lf 1001,1 hPa 0,0 l/m 0 min 0 min 0 W/m 29,3 km/h (5 Bft) 97,87 %
02.03.2016 04:26 7,3 C 6,7 C 5,6 C 97 % 15 lf 1001,2 hPa 0,0 l/m 0 min 0 min 0 W/m 20,9 km/h (4 Bft) 93,62 %
02.03.2016 04:28 7,3 C 7,2 C 5,6 C 97 % 15 lf 1001,2 hPa 0,0 l/m 0 min 2 min 0 W/m 41,8 km/h (6 Bft) 93,62 %
02.03.2016 04:30 7,3 C 6,7 C 5,6 C 97 % 15 lf 1001,2 hPa 0,0 l/m 0 min 2 min 0 W/m 25,1 km/h (4 Bft) 95,74 %
02.03.2016 04:32 7,3 C 6,7 C 5,6 C 97 % 15 lf 1001,2 hPa 0,0 l/m 0 min 2 min 0 W/m 27,2 km/h (4 Bft) 89,13 %
02.03.2016 04:34 7,3 C 7,2 C 5,6 C 97 % 15 lf 1001,2 hPa 0,0 l/m 0 min 0 min 0 W/m 31,4 km/h (5 Bft) 93,62 %
02.03.2016 04:36 7,3 C 6,7 C 5,6 C 97 % 15 lf 1000,9 hPa 0,0 l/m 0 min 2 min 0 W/m 25,1 km/h (4 Bft) 87,23 %
02.03.2016 04:38 7,3 C 7,2 C 5,6 C 96 % 15 lf 1001,0 hPa 0,0 l/m 0 min 0 min 0 W/m 23,0 km/h (4 Bft) 92,00 %
02.03.2016 04:40 7,3 C 6,7 C 5,6 C 96 % 15 lf 1000,9 hPa 0,0 l/m 0 min 2 min 0 W/m 25,1 km/h (4 Bft) 93,62 %
02.03.2016 04:42 7,3 C 6,7 C 5,6 C 96 % 15 lf 1000,9 hPa 0,0 l/m 0 min 0 min 0 W/m 33,5 km/h (5 Bft) 91,49 %
02.03.2016 04:44 7,3 C 6,7 C 5,6 C 96 % 15 lf 1000,7 hPa 0,0 l/m 0 min 2 min 0 W/m 33,5 km/h (5 Bft) 91,89 %
02.03.2016 04:46 7,3 C 6,7 C 5,6 C 96 % 15 lf 1000,8 hPa 0,0 l/m 0 min 2 min 0 W/m 29,3 km/h (5 Bft) 93,62 %
02.03.2016 04:48 7,3 C 6,7 C 5,6 C 96 % 15 lf 1000,7 hPa 0,0 l/m 0 min 2 min 0 W/m 39,7 km/h (6 Bft) 93,62 %
02.03.2016 04:50 7,3 C 6,7 C 5,6 C 96 % 15 lf 1000,7 hPa 0,0 l/m 0 min 2 min 0 W/m 29,3 km/h (5 Bft) 93,62 %
02.03.2016 04:52 7,3 C 6,7 C 5,6 C 96 % 15 lf 1000,7 hPa 0,0 l/m 0 min 0 min 0 W/m 25,1 km/h (4 Bft) 89,36 %
02.03.2016 04:54 7,3 C 6,7 C 5,0 C 96 % 15 lf 1000,7 hPa 0,0 l/m 0 min 2 min 0 W/m 35,6 km/h (5 Bft) 90,57 %
02.03.2016 04:56 7,3 C 6,7 C 5,0 C 96 % 15 lf 1000,6 hPa 0,0 l/m 0 min 2 min 0 W/m 33,5 km/h (5 Bft) 91,30 %
02.03.2016 04:58 7,3 C 7,2 C 5,0 C 96 % 15 lf 1000,6 hPa 0,0 l/m 0 min 2 min 0 W/m 25,1 km/h (4 Bft) 91,49 %
02.03.2016 05:00 7,3 C 7,2 C 5,0 C 96 % 15 lf 1000,7 hPa 0,0 l/m 0 min 0 min 0 W/m 33,5 km/h (5 Bft) 93,62 %
02.03.2016 05:02 7,3 C 7,2 C 5,0 C 96 % 15 lf 1000,7 hPa 0,0 l/m 0 min 0 min 0 W/m 29,3 km/h (5 Bft) 96,00 %
02.03.2016 05:04 7,3 C 6,7 C 5,0 C 96 % 15 lf 1000,6 hPa 0,0 l/m 0 min 0 min 0 W/m 18,8 km/h (3 Bft) 97,87 %
02.03.2016 05:06 7,3 C 6,7 C 5,0 C 95 % 15 lf 1000,5 hPa 0,0 l/m 0 min 0 min 0 W/m 23,0 km/h (4 Bft) 95,74 %
02.03.2016 05:08 7,3 C 6,7 C 5,0 C 95 % 15 lf 1000,5 hPa 0,0 l/m 0 min 0 min 0 W/m 23,0 km/h (4 Bft) 97,30 %
02.03.2016 05:10 7,3 C 6,7 C 5,0 C 95 % 15 lf 1000,5 hPa 0,0 l/m 0 min 0 min 0 W/m 31,4 km/h (5 Bft) 95,74 %
02.03.2016 05:12 7,3 C 6,7 C 5,0 C 95 % 15 lf 1000,2 hPa 0,0 l/m 0 min 2 min 0 W/m 27,2 km/h (4 Bft) 97,87 %
02.03.2016 05:14 7,3 C 6,7 C 5,0 C 95 % 14 lf 1000,3 hPa 0,0 l/m 0 min 2 min 0 W/m 25,1 km/h (4 Bft) 95,74 %
02.03.2016 05:16 7,3 C 6,7 C 5,0 C 95 % 13 lf 1000,4 hPa 0,0 l/m 0 min 0 min 0 W/m 31,4 km/h (5 Bft) 97,87 %
02.03.2016 05:18 7,3 C 6,7 C 5,0 C 94 % 12 lf 1000,3 hPa 0,0 l/m 0 min 0 min 0 W/m 16,7 km/h (3 Bft) 94,34 %
02.03.2016 05:20 7,3 C 6,7 C 5,0 C 94 % 10 lf 1000,5 hPa 0,0 l/m 0 min 0 min 0 W/m 29,3 km/h (5 Bft) 95,65 %
02.03.2016 05:22 7,3 C 6,7 C 5,0 C 94 % 8 lf 1000,4 hPa 0,0 l/m 0 min 2 min 0 W/m 29,3 km/h (5 Bft) 97,87 %
02.03.2016 05:24 7,3 C 7,2 C 5,0 C 94 % 4 lf 1000,4 hPa 0,0 l/m 0 min 0 min 0 W/m 27,2 km/h (4 Bft) 97,87 %
02.03.2016 05:26 7,3 C 7,2 C 5,0 C 94 % 3 lf 1000,4 hPa 0,0 l/m 0 min 0 min 0 W/m 23,0 km/h (4 Bft) 97,87 %
02.03.2016 05:28 7,3 C 7,2 C 5,0 C 94 % 3 lf 1000,5 hPa 0,0 l/m 0 min 0 min 0 W/m 23,0 km/h (4 Bft) 97,87 %
02.03.2016 05:30 7,3 C 6,7 C 5,0 C 93 % 1 lf 1000,5 hPa 0,0 l/m 0 min 0 min 0 W/m 25,1 km/h (4 Bft) 97,87 %
02.03.2016 05:32 7,3 C 6,7 C 5,0 C 93 % 0 lf 1000,5 hPa 0,0 l/m 0 min 0 min 0 W/m 23,0 km/h (4 Bft) 97,83 %
02.03.2016 05:34 7,3 C 7,2 C 5,0 C 93 % 0 lf 1000,5 hPa 0,0 l/m 0 min 0 min 0 W/m 29,3 km/h (5 Bft) 98,00 %
02.03.2016 05:36 7,3 C 7,2 C 5,0 C 93 % 0 lf 1000,5 hPa 0,0 l/m 0 min 0 min 0 W/m 25,1 km/h (4 Bft) 95,74 %
02.03.2016 05:38 7,3 C 7,2 C 5,0 C 93 % 0 lf 1000,4 hPa 0,0 l/m 0 min 0 min 0 W/m 25,1 km/h (4 Bft) 92,11 %
02.03.2016 05:40 7,4 C 7,2 C 5,0 C 92 % 0 lf 1000,4 hPa 0,0 l/m 0 min 0 min 0 W/m 25,1 km/h (4 Bft) 100,00 %
02.03.2016 05:42 7,4 C 7,2 C 5,0 C 92 % 0 lf 1000,4 hPa 0,0 l/m 0 min 0 min 0 W/m 18,8 km/h (3 Bft) 95,65 %
02.03.2016 05:44 7,4 C 7,2 C 5,0 C 92 % 4 lf 1000,4 hPa 0,0 l/m 0 min 2 min 0 W/m 20,9 km/h (4 Bft) 89,36 %
02.03.2016 05:46 7,4 C 6,7 C 5,0 C 91 % 15 lf 1000,3 hPa 0,0 l/m 0 min 2 min 0 W/m 23,0 km/h (4 Bft) 93,62 %
02.03.2016 05:48 7,4 C 7,2 C 5,0 C 91 % 15 lf 1000,2 hPa 0,0 l/m 0 min 2 min 0 W/m 16,7 km/h (3 Bft) 94,34 %
02.03.2016 05:50 7,4 C 6,7 C 5,0 C 91 % 15 lf 1000,3 hPa 0,0 l/m 0 min 2 min 0 W/m 23,0 km/h (4 Bft) 97,87 %
02.03.2016 05:52 7,4 C 6,7 C 5,0 C 91 % 15 lf 1000,1 hPa 0,2 l/m 0 min 2 min 0 W/m 20,9 km/h (4 Bft) 91,49 %
02.03.2016 05:54 7,4 C 6,7 C 5,0 C 91 % 15 lf 1000,2 hPa 0,0 l/m 0 min 2 min 0 W/m 25,1 km/h (4 Bft) 93,62 %
02.03.2016 05:56 7,4 C 6,7 C 5,0 C 91 % 15 lf 1000,2 hPa 0,0 l/m 0 min 2 min 0 W/m 23,0 km/h (4 Bft) 97,83 %
02.03.2016 05:58 7,4 C 6,7 C 5,0 C 91 % 15 lf 1000,1 hPa 0,0 l/m 0 min 2 min 0 W/m 14,6 km/h (3 Bft) 97,87 %
02.03.2016 06:00 7,4 C 6,1 C 5,0 C 91 % 15 lf 1000,0 hPa 0,0 l/m 0 min 2 min 0 W/m 20,9 km/h (4 Bft) 97,87 %
02.03.2016 06:02 7,4 C 6,7 C 5,0 C 91 % 15 lf 1000,0 hPa 0,0 l/m 0 min 2 min 0 W/m 18,8 km/h (3 Bft) 95,74 %
02.03.2016 06:04 7,4 C 6,7 C 5,0 C 91 % 15 lf 1000,0 hPa 0,0 l/m 0 min 0 min 0 W/m 23,0 km/h (4 Bft) 98,04 %
02.03.2016 06:06 7,3 C 6,7 C 5,0 C 91 % 15 lf 1000,0 hPa 0,0 l/m 0 min 0 min 0 W/m 16,7 km/h (3 Bft) 95,65 %
02.03.2016 06:08 7,3 C 6,7 C 5,0 C 91 % 15 lf 1000,0 hPa 0,0 l/m 0 min 2 min 0 W/m 18,8 km/h (3 Bft) 100,00 %
02.03.2016 06:10 7,3 C 6,7 C 5,0 C 91 % 15 lf 999,9 hPa 0,0 l/m 0 min 2 min 0 W/m 20,9 km/h (4 Bft) 100,00 %
02.03.2016 06:12 7,3 C 6,7 C 5,0 C 92 % 15 lf 999,9 hPa 0,2 l/m 0 min 2 min 0 W/m 16,7 km/h (3 Bft) 100,00 %
02.03.2016 06:14 7,3 C 6,7 C 5,0 C 92 % 15 lf 999,9 hPa 0,0 l/m 0 min 2 min 0 W/m 20,9 km/h (4 Bft) 97,87 %
02.03.2016 06:16 7,2 C 6,7 C 5,0 C 92 % 15 lf 999,9 hPa 0,0 l/m 0 min 2 min 0 W/m 18,8 km/h (3 Bft) 97,87 %
02.03.2016 06:18 7,2 C 6,7 C 5,0 C 92 % 15 lf 999,9 hPa 0,0 l/m 0 min 2 min 0 W/m 18,8 km/h (3 Bft) 97,83 %
02.03.2016 06:20 7,2 C 6,7 C 5,0 C 92 % 15 lf 999,9 hPa 0,0 l/m 0 min 2 min 0 W/m 18,8 km/h (3 Bft) 97,87 %
02.03.2016 06:22 7,2 C 6,7 C 5,0 C 92 % 15 lf 999,8 hPa 0,0 l/m 0 min 2 min 0 W/m 31,4 km/h (5 Bft) 100,00 %
02.03.2016 06:24 7,2 C 6,7 C 5,0 C 92 % 15 lf 999,8 hPa 0,0 l/m 0 min 2 min 0 W/m 27,2 km/h (4 Bft) 97,87 %
02.03.2016 06:26 7,2 C 6,7 C 5,0 C 93 % 15 lf 999,7 hPa 0,0 l/m 0 min 0 min 0 W/m 20,9 km/h (4 Bft) 97,87 %
02.03.2016 06:28 7,1 C 6,7 C 5,0 C 93 % 15 lf 999,7 hPa 0,0 l/m 0 min 0 min 0 W/m 39,7 km/h (6 Bft) 97,87 %
02.03.2016 06:30 7,1 C 6,7 C 5,0 C 93 % 15 lf 999,7 hPa 0,0 l/m 0 min 0 min 0 W/m 31,4 km/h (5 Bft) 100,00 %
02.03.2016 06:32 7,1 C 6,7 C 5,0 C 93 % 15 lf 999,6 hPa 0,0 l/m 0 min 0 min 0 W/m 29,3 km/h (5 Bft) 97,87 %
02.03.2016 06:34 7,1 C 6,7 C 5,0 C 93 % 15 lf 999,6 hPa 0,0 l/m 0 min 2 min 0 W/m 25,1 km/h (4 Bft) 100,00 %
02.03.2016 06:36 7,1 C 6,7 C 5,0 C 93 % 15 lf 999,6 hPa 0,0 l/m 0 min 2 min 0 W/m 25,1 km/h (4 Bft) 97,30 %
02.03.2016 06:38 7,1 C 6,7 C 5,0 C 94 % 15 lf 999,6 hPa 0,0 l/m 0 min 2 min 0 W/m 29,3 km/h (5 Bft) 97,87 %
02.03.2016 06:40 7,1 C 6,7 C 5,0 C 94 % 15 lf 999,5 hPa 0,0 l/m 0 min 2 min 0 W/m 25,1 km/h (4 Bft) 95,65 %
02.03.2016 06:42 7,1 C 6,7 C 5,0 C 94 % 15 lf 999,6 hPa 0,0 l/m 0 min 2 min 0 W/m 33,5 km/h (5 Bft) 97,87 %
02.03.2016 06:44 7,1 C 6,7 C 5,0 C 94 % 15 lf 999,6 hPa 0,0 l/m 0 min 2 min 0 W/m 35,6 km/h (5 Bft) 100,00 %
02.03.2016 06:46 7,1 C 6,7 C 5,0 C 94 % 15 lf 999,6 hPa 0,2 l/m 0 min 2 min 0 W/m 27,2 km/h (4 Bft) 100,00 %
02.03.2016 06:48 7,0 C 6,7 C 5,0 C 94 % 15 lf 999,7 hPa 0,0 l/m 0 min 2 min 0 W/m 31,4 km/h (5 Bft) 95,74 %
02.03.2016 06:50 7,0 C 6,7 C 5,0 C 94 % 15 lf 999,7 hPa 0,2 l/m 0 min 2 min 0 W/m 33,5 km/h (5 Bft) 97,87 %
02.03.2016 06:52 7,0 C 6,7 C 5,0 C 94 % 15 lf 999,7 hPa 0,2 l/m 0 min 2 min 0 W/m 31,4 km/h (5 Bft) 97,83 %
02.03.2016 06:54 7,0 C 6,7 C 5,0 C 94 % 15 lf 999,6 hPa 0,2 l/m 0 min 2 min 0 W/m 23,0 km/h (4 Bft) 100,00 %
02.03.2016 06:56 7,0 C 6,7 C 5,0 C 94 % 15 lf 999,7 hPa 0,0 l/m 0 min 2 min 0 W/m 29,3 km/h (5 Bft) 100,00 %
02.03.2016 06:58 6,9 C 6,7 C 5,0 C 94 % 15 lf 999,6 hPa 0,0 l/m 0 min 0 min 0 W/m 20,9 km/h (4 Bft) 96,30 %
02.03.2016 07:00 6,9 C 6,7 C 5,0 C 94 % 15 lf 999,6 hPa 0,0 l/m 0 min 0 min 0 W/m 27,2 km/h (4 Bft) 98,00 %
02.03.2016 07:02 6,9 C 6,7 C 5,0 C 94 % 15 lf 999,5 hPa 0,0 l/m 0 min 0 min 0 W/m 31,4 km/h (5 Bft) 97,87 %
02.03.2016 07:04 6,9 C 6,7 C 5,0 C 95 % 15 lf 999,5 hPa 0,0 l/m 0 min 0 min 0 W/m 35,6 km/h (5 Bft) 95,65 %
02.03.2016 07:06 6,9 C 6,7 C 5,0 C 95 % 15 lf 999,4 hPa 0,0 l/m 0 min 0 min 0 W/m 23,0 km/h (4 Bft) 97,87 %
02.03.2016 07:08 6,9 C 6,7 C 5,0 C 95 % 15 lf 999,4 hPa 0,0 l/m 0 min 0 min 0 W/m 23,0 km/h (4 Bft) 97,87 %
02.03.2016 07:10 6,9 C 6,7 C 5,0 C 95 % 15 lf 999,4 hPa 0,0 l/m 0 min 0 min 0 W/m 23,0 km/h (4 Bft) 97,87 %
02.03.2016 07:12 6,8 C 6,7 C 5,0 C 95 % 15 lf 999,5 hPa 0,0 l/m 0 min 0 min 0 W/m 29,3 km/h (5 Bft) 97,87 %
02.03.2016 07:14 6,8 C 6,7 C 5,0 C 95 % 15 lf 999,4 hPa 0,0 l/m 0 min 0 min 0 W/m 29,3 km/h (5 Bft) 95,74 %
02.03.2016 07:16 6,8 C 6,7 C 5,0 C 95 % 15 lf 999,4 hPa 0,0 l/m 0 min 0 min 0 W/m 23,0 km/h (4 Bft) 97,22 %
02.03.2016 07:18 6,8 C 6,7 C 5,0 C 95 % 15 lf 999,4 hPa 0,0 l/m 0 min 0 min 0 W/m 27,2 km/h (4 Bft) 93,62 %
02.03.2016 07:20 6,8 C 6,7 C 5,0 C 95 % 15 lf 999,4 hPa 0,0 l/m 0 min 0 min 0 W/m 29,3 km/h (5 Bft) 95,74 %
02.03.2016 07:22 6,8 C 6,7 C 5,0 C 95 % 15 lf 999,3 hPa 0,0 l/m 0 min 0 min 0 W/m 31,4 km/h (5 Bft) 94,44 %
02.03.2016 07:24 6,7 C 6,7 C 5,0 C 95 % 15 lf 999,3 hPa 0,0 l/m 0 min 0 min 0 W/m 29,3 km/h (5 Bft) 95,74 %
02.03.2016 07:26 6,7 C 6,7 C 5,0 C 95 % 15 lf 999,2 hPa 0,0 l/m 0 min 0 min 0 W/m 27,2 km/h (4 Bft) 93,62 %
02.03.2016 07:28 6,7 C 6,7 C 5,0 C 95 % 15 lf 999,1 hPa 0,0 l/m 0 min 0 min 5 W/m 25,1 km/h (4 Bft) 95,92 %
02.03.2016 07:30 6,7 C 6,7 C 5,0 C 95 % 15 lf 999,1 hPa 0,0 l/m 0 min 0 min 5 W/m 20,9 km/h (4 Bft) 93,62 %
02.03.2016 07:32 6,7 C 6,7 C 5,0 C 95 % 15 lf 999,1 hPa 0,0 l/m 0 min 0 min 5 W/m 27,2 km/h (4 Bft) 89,19 %
02.03.2016 07:34 6,7 C 6,7 C 5,0 C 95 % 15 lf 999,1 hPa 0,0 l/m 0 min 0 min 5 W/m 27,2 km/h (4 Bft) 89,36 %
02.03.2016 07:36 6,7 C 6,7 C 5,0 C 95 % 15 lf 999,1 hPa 0,0 l/m 0 min 0 min 7 W/m 25,1 km/h (4 Bft) 93,62 %
02.03.2016 07:38 6,7 C 6,7 C 5,0 C 95 % 15 lf 999,0 hPa 0,0 l/m 0 min 0 min 7 W/m 27,2 km/h (4 Bft) 94,44 %
02.03.2016 07:40 6,7 C 6,7 C 5,0 C 95 % 15 lf 999,0 hPa 0,0 l/m 0 min 0 min 9 W/m 25,1 km/h (4 Bft) 93,48 %
02.03.2016 07:42 6,7 C 6,7 C 5,0 C 95 % 15 lf 999,0 hPa 0,0 l/m 0 min 0 min 11 W/m 27,2 km/h (4 Bft) 92,00 %
02.03.2016 07:44 6,7 C 6,7 C 5,0 C 95 % 15 lf 998,8 hPa 0,0 l/m 0 min 0 min 13 W/m 31,4 km/h (5 Bft) 95,74 %
02.03.2016 07:46 6,7 C 6,7 C 5,0 C 95 % 15 lf 998,8 hPa 0,0 l/m 0 min 0 min 14 W/m 18,8 km/h (3 Bft) 91,49 %
02.03.2016 07:48 6,7 C 6,7 C 5,0 C 95 % 15 lf 998,7 hPa 0,0 l/m 0 min 0 min 16 W/m 29,3 km/h (5 Bft) 97,30 %
02.03.2016 07:50 6,7 C 6,7 C 5,0 C 95 % 15 lf 998,7 hPa 0,0 l/m 0 min 0 min 15 W/m 29,3 km/h (5 Bft) 93,48 %
02.03.2016 07:52 6,7 C 6,7 C 5,0 C 95 % 15 lf 998,7 hPa 0,0 l/m 0 min 0 min 13 W/m 18,8 km/h (3 Bft) 96,30 %
02.03.2016 07:54 6,7 C 6,7 C 5,0 C 95 % 15 lf 998,7 hPa 0,0 l/m 0 min 0 min 12 W/m 23,0 km/h (4 Bft) 95,74 %
02.03.2016 07:56 6,7 C 6,7 C 5,0 C 95 % 15 lf 998,7 hPa 0,0 l/m 0 min 0 min 12 W/m 20,9 km/h (4 Bft) 98,00 %
02.03.2016 07:58 6,7 C 6,7 C 5,0 C 95 % 15 lf 998,7 hPa 0,0 l/m 0 min 0 min 11 W/m 25,1 km/h (4 Bft) 94,59 %
02.03.2016 08:00 6,7 C 6,7 C 5,0 C 95 % 15 lf 998,7 hPa 0,0 l/m 0 min 0 min 11 W/m 29,3 km/h (5 Bft) 97,87 %
02.03.2016 08:02 6,7 C 6,7 C 5,0 C 95 % 15 lf 998,7 hPa 0,0 l/m 0 min 0 min 11 W/m 27,2 km/h (4 Bft) 92,45 %
02.03.2016 08:04 6,7 C 6,7 C 5,0 C 95 % 15 lf 998,6 hPa 0,0 l/m 0 min 0 min 10 W/m 20,9 km/h (4 Bft) 93,62 %
02.03.2016 08:06 6,7 C 6,7 C 5,0 C 95 % 15 lf 998,5 hPa 0,0 l/m 0 min 0 min 11 W/m 25,1 km/h (4 Bft) 96,00 %
02.03.2016 08:08 6,7 C 6,7 C 5,0 C 94 % 15 lf 998,5 hPa 0,0 l/m 0 min 0 min 13 W/m 29,3 km/h (5 Bft) 95,74 %
02.03.2016 08:10 6,7 C 6,7 C 5,0 C 94 % 15 lf 998,4 hPa 0,0 l/m 0 min 0 min 16 W/m 23,0 km/h (4 Bft) 95,74 %
02.03.2016 08:12 6,7 C 6,7 C 5,0 C 94 % 15 lf 998,4 hPa 0,0 l/m 0 min 0 min 18 W/m 25,1 km/h (4 Bft) 95,74 %
02.03.2016 08:14 6,7 C 6,7 C 5,0 C 94 % 15 lf 998,4 hPa 0,0 l/m 0 min 0 min 21 W/m 20,9 km/h (4 Bft) 91,30 %
02.03.2016 08:16 6,7 C 6,7 C 5,0 C 94 % 15 lf 998,3 hPa 0,0 l/m 0 min 0 min 21 W/m 20,9 km/h (4 Bft) 95,74 %
02.03.2016 08:18 6,7 C 6,7 C 5,0 C 94 % 15 lf 998,2 hPa 0,0 l/m 0 min 0 min 23 W/m 31,4 km/h (5 Bft) 95,74 %
02.03.2016 08:20 6,7 C 6,7 C 5,0 C 94 % 15 lf 998,3 hPa 0,0 l/m 0 min 0 min 31 W/m 25,1 km/h (4 Bft) 93,62 %
02.03.2016 08:22 6,7 C 6,7 C 5,0 C 94 % 15 lf 998,2 hPa 0,0 l/m 0 min 0 min 39 W/m 31,4 km/h (5 Bft) 94,59 %
02.03.2016 08:24 6,7 C 6,7 C 5,0 C 93 % 15 lf 998,2 hPa 0,0 l/m 0 min 0 min 43 W/m 37,7 km/h (5 Bft) 95,74 %
02.03.2016 08:26 6,7 C 6,7 C 5,0 C 93 % 15 lf 998,2 hPa 0,0 l/m 0 min 0 min 39 W/m 27,2 km/h (4 Bft) 95,65 %
02.03.2016 08:28 6,8 C 6,7 C 5,0 C 93 % 15 lf 998,2 hPa 0,0 l/m 0 min 0 min 36 W/m 18,8 km/h (3 Bft) 93,62 %
02.03.2016 08:30 6,8 C 6,7 C 5,0 C 93 % 15 lf 998,2 hPa 0,0 l/m 0 min 0 min 44 W/m 29,3 km/h (5 Bft) 97,87 %
02.03.2016 08:32 6,8 C 6,7 C 5,0 C 93 % 15 lf 998,2 hPa 0,0 l/m 0 min 0 min 48 W/m 23,0 km/h (4 Bft) 91,49 %
02.03.2016 08:34 6,8 C 6,7 C 5,0 C 93 % 15 lf 998,2 hPa 0,0 l/m 0 min 0 min 50 W/m 16,7 km/h (3 Bft) 95,74 %
02.03.2016 08:36 6,8 C 6,7 C 5,0 C 93 % 15 lf 998,1 hPa 0,0 l/m 0 min 0 min 54 W/m 23,0 km/h (4 Bft) 94,44 %
02.03.2016 08:38 6,8 C 6,7 C 5,0 C 93 % 15 lf 998,2 hPa 0,0 l/m 0 min 0 min 59 W/m 29,3 km/h (5 Bft) 97,83 %
02.03.2016 08:40 6,8 C 6,7 C 5,0 C 92 % 15 lf 998,2 hPa 0,0 l/m 0 min 0 min 62 W/m 29,3 km/h (5 Bft) 95,74 %
02.03.2016 08:42 6,9 C 6,7 C 5,0 C 92 % 15 lf 998,1 hPa 0,0 l/m 0 min 0 min 62 W/m 37,7 km/h (5 Bft) 93,62 %
02.03.2016 08:44 6,9 C 6,7 C 5,0 C 92 % 15 lf 998,2 hPa 0,0 l/m 0 min 0 min 56 W/m 23,0 km/h (4 Bft) 96,00 %
02.03.2016 08:46 6,9 C 6,7 C 5,0 C 92 % 15 lf 998,1 hPa 0,0 l/m 0 min 0 min 46 W/m 27,2 km/h (4 Bft) 97,87 %
02.03.2016 08:48 6,9 C 6,7 C 5,0 C 92 % 15 lf 998,1 hPa 0,0 l/m 0 min 0 min 39 W/m 23,0 km/h (4 Bft) 91,67 %
02.03.2016 08:50 6,9 C 6,7 C 5,0 C 91 % 15 lf 998,1 hPa 0,0 l/m 0 min 0 min 38 W/m 37,7 km/h (5 Bft) 97,87 %
02.03.2016 08:52 6,9 C 6,7 C 5,0 C 91 % 14 lf 998,0 hPa 0,0 l/m 0 min 0 min 34 W/m 29,3 km/h (5 Bft) 97,87 %
02.03.2016 08:54 7,0 C 6,7 C 5,0 C 91 % 13 lf 997,9 hPa 0,0 l/m 0 min 0 min 41 W/m 29,3 km/h (5 Bft) 95,74 %
02.03.2016 08:56 7,0 C 6,7 C 5,0 C 91 % 12 lf 998,0 hPa 0,0 l/m 0 min 0 min 52 W/m 33,5 km/h (5 Bft) 97,87 %
02.03.2016 08:58 7,1 C 6,7 C 5,0 C 90 % 10 lf 997,9 hPa 0,0 l/m 0 min 0 min 68 W/m 33,5 km/h (5 Bft) 98,15 %
02.03.2016 09:00 7,1 C 6,7 C 5,0 C 90 % 9 lf 997,8 hPa 0,0 l/m 0 min 0 min 71 W/m 27,2 km/h (4 Bft) 100,00 %
02.03.2016 09:02 7,1 C 7,2 C 5,0 C 90 % 7 lf 997,9 hPa 0,0 l/m 0 min 0 min 69 W/m 27,2 km/h (4 Bft) 95,92 %
02.03.2016 09:04 7,2 C 7,2 C 5,0 C 90 % 4 lf 997,8 hPa 0,0 l/m 0 min 2 min 65 W/m 29,3 km/h (5 Bft) 93,62 %
02.03.2016 09:06 7,2 C 6,7 C 5,0 C 90 % 6 lf 997,8 hPa 0,0 l/m 0 min 2 min 62 W/m 33,5 km/h (5 Bft) 93,62 %
02.03.2016 09:08 7,2 C 7,2 C 5,0 C 89 % 7 lf 997,8 hPa 0,0 l/m 0 min 2 min 61 W/m 31,4 km/h (5 Bft) 97,30 %
02.03.2016 09:10 7,2 C 7,2 C 5,0 C 89 % 9 lf 997,9 hPa 0,0 l/m 0 min 2 min 58 W/m 37,7 km/h (5 Bft) 97,87 %
02.03.2016 09:12 7,2 C 7,2 C 5,0 C 89 % 8 lf 997,8 hPa 0,2 l/m 0 min 2 min 61 W/m 56,5 km/h (7 Bft) 97,83 %
02.03.2016 09:14 7,3 C 7,2 C 5,0 C 89 % 11 lf 997,8 hPa 0,0 l/m 0 min 2 min 70 W/m 35,6 km/h (5 Bft) 95,74 %
02.03.2016 09:16 7,3 C 7,2 C 5,0 C 89 % 14 lf 997,8 hPa 0,0 l/m 0 min 2 min 82 W/m 31,4 km/h (5 Bft) 97,87 %
02.03.2016 09:18 7,3 C 7,2 C 5,0 C 89 % 13 lf 997,7 hPa 0,0 l/m 0 min 2 min 88 W/m 43,9 km/h (6 Bft) 97,87 %
02.03.2016 09:20 7,3 C 7,8 C 5,0 C 89 % 12 lf 997,7 hPa 0,0 l/m 0 min 2 min 81 W/m 27,2 km/h (4 Bft) 97,87 %
02.03.2016 09:22 7,3 C 7,8 C 5,0 C 89 % 11 lf 997,7 hPa 0,0 l/m 0 min 2 min 81 W/m 41,8 km/h (6 Bft) 97,87 %
02.03.2016 09:24 7,3 C 7,8 C 5,0 C 89 % 10 lf 997,7 hPa 0,0 l/m 0 min 2 min 81 W/m 27,2 km/h (4 Bft) 90,57 %
02.03.2016 09:26 7,3 C 7,2 C 5,0 C 89 % 7 lf 997,8 hPa 0,0 l/m 0 min 2 min 79 W/m 35,6 km/h (5 Bft) 93,88 %
02.03.2016 09:28 7,3 C 7,2 C 5,6 C 89 % 9 lf 997,7 hPa 0,0 l/m 0 min 2 min 87 W/m 31,4 km/h (5 Bft) 97,87 %
02.03.2016 09:30 7,4 C 7,8 C 5,6 C 88 % 11 lf 997,6 hPa 0,0 l/m 0 min 2 min 91 W/m 37,7 km/h (5 Bft) 93,62 %
02.03.2016 09:32 7,4 C 7,8 C 5,6 C 88 % 14 lf 997,6 hPa 0,0 l/m 0 min 2 min 85 W/m 37,7 km/h (5 Bft) 95,74 %
02.03.2016 09:34 7,4 C 7,2 C 5,6 C 88 % 15 lf 997,6 hPa 0,0 l/m 0 min 2 min 79 W/m 31,4 km/h (5 Bft) 95,74 %
02.03.2016 09:36 7,4 C 7,2 C 5,6 C 88 % 15 lf 997,6 hPa 0,0 l/m 0 min 2 min 80 W/m 37,7 km/h (5 Bft) 97,83 %
02.03.2016 09:38 7,4 C 6,7 C 5,0 C 88 % 15 lf 997,6 hPa 0,0 l/m 0 min 2 min 89 W/m 35,6 km/h (5 Bft) 93,62 %
02.03.2016 09:40 7,4 C 6,7 C 5,0 C 89 % 15 lf 997,5 hPa 0,0 l/m 0 min 2 min 80 W/m 27,2 km/h (4 Bft) 91,49 %
02.03.2016 09:42 7,3 C 6,7 C 5,0 C 89 % 15 lf 997,5 hPa 0,0 l/m 0 min 2 min 70 W/m 41,8 km/h (6 Bft) 89,47 %
02.03.2016 09:44 7,3 C 6,7 C 5,0 C 89 % 15 lf 997,5 hPa 0,0 l/m 0 min 2 min 55 W/m 35,6 km/h (5 Bft) 97,87 %
02.03.2016 09:46 7,3 C 6,1 C 5,0 C 89 % 15 lf 997,4 hPa 0,0 l/m 0 min 2 min 44 W/m 39,7 km/h (6 Bft) 97,83 %
02.03.2016 09:48 7,2 C 6,1 C 5,0 C 89 % 15 lf 997,5 hPa 0,2 l/m 0 min 2 min 39 W/m 37,7 km/h (5 Bft) 97,87 %
02.03.2016 09:50 7,2 C 6,1 C 5,0 C 89 % 15 lf 997,6 hPa 0,0 l/m 0 min 2 min 33 W/m 35,6 km/h (5 Bft) 98,11 %
02.03.2016 09:52 7,2 C 6,1 C 5,0 C 89 % 15 lf 997,8 hPa 0,2 l/m 0 min 2 min 30 W/m 31,4 km/h (5 Bft) 95,74 %
02.03.2016 09:54 7,1 C 6,1 C 4,4 C 90 % 15 lf 997,9 hPa 0,2 l/m 0 min 2 min 29 W/m 48,1 km/h (6 Bft) 95,74 %
02.03.2016 09:56 6,9 C 5,6 C 4,4 C 90 % 15 lf 998,1 hPa 0,0 l/m 0 min 2 min 55 W/m 37,7 km/h (5 Bft) 97,87 %
02.03.2016 09:58 6,8 C 5,6 C 4,4 C 90 % 15 lf 998,2 hPa 0,2 l/m 0 min 2 min 47 W/m 46,0 km/h (6 Bft) 93,62 %
02.03.2016 10:00 6,6 C 5,0 C 3,9 C 90 % 15 lf 998,3 hPa 0,0 l/m 0 min 2 min 53 W/m 56,5 km/h (7 Bft) 95,65 %
02.03.2016 10:02 6,3 C 4,4 C 3,3 C 89 % 15 lf 998,3 hPa 0,0 l/m 0 min 2 min 61 W/m 50,2 km/h (7 Bft) 97,87 %
02.03.2016 10:04 6,1 C 4,4 C 3,3 C 89 % 15 lf 998,4 hPa 0,0 l/m 0 min 2 min 55 W/m 35,6 km/h (5 Bft) 93,62 %
02.03.2016 10:06 5,9 C 4,4 C 3,3 C 89 % 15 lf 998,6 hPa 0,0 l/m 0 min 2 min 54 W/m 33,5 km/h (5 Bft) 97,87 %
02.03.2016 10:08 5,7 C 4,4 C 3,3 C 89 % 15 lf 998,6 hPa 0,0 l/m 0 min 2 min 49 W/m 37,7 km/h (5 Bft) 95,74 %
02.03.2016 10:10 5,5 C 3,9 C 2,8 C 89 % 15 lf 998,7 hPa 0,0 l/m 0 min 0 min 41 W/m 35,6 km/h (5 Bft) 97,87 %
02.03.2016 10:12 5,3 C 3,9 C 2,8 C 89 % 15 lf 998,8 hPa 0,0 l/m 0 min 0 min 40 W/m 41,8 km/h (6 Bft) 97,83 %
02.03.2016 10:14 5,2 C 3,9 C 2,8 C 89 % 15 lf 998,6 hPa 0,0 l/m 0 min 0 min 50 W/m 29,3 km/h (5 Bft) 95,74 %
02.03.2016 10:16 5,0 C 3,9 C 2,8 C 89 % 15 lf 998,6 hPa 0,0 l/m 0 min 2 min 54 W/m 27,2 km/h (4 Bft) 96,00 %
02.03.2016 10:18 4,9 C 3,9 C 2,8 C 90 % 15 lf 998,7 hPa 0,0 l/m 0 min 2 min 48 W/m 27,2 km/h (4 Bft) 97,87 %
02.03.2016 10:20 4,8 C 3,9 C 2,8 C 90 % 15 lf 998,8 hPa 0,0 l/m 0 min 2 min 48 W/m 25,1 km/h (4 Bft) 95,74 %
02.03.2016 10:22 4,7 C 3,9 C 2,8 C 90 % 15 lf 998,9 hPa 0,0 l/m 0 min 2 min 45 W/m 12,6 km/h (3 Bft) 97,83 %
02.03.2016 10:24 4,6 C 3,9 C 2,8 C 90 % 15 lf 999,0 hPa 0,0 l/m 0 min 2 min 37 W/m 23,0 km/h (4 Bft) 100,00 %
02.03.2016 10:26 4,6 C 3,9 C 2,8 C 90 % 15 lf 998,9 hPa 0,2 l/m 0 min 2 min 41 W/m 25,1 km/h (4 Bft) 97,87 %
02.03.2016 10:28 4,5 C 3,9 C 2,8 C 90 % 15 lf 998,9 hPa 0,0 l/m 0 min 2 min 51 W/m 33,5 km/h (5 Bft) 98,11 %
02.03.2016 10:30 4,4 C 3,9 C 2,8 C 91 % 15 lf 998,9 hPa 0,0 l/m 0 min 2 min 76 W/m 20,9 km/h (4 Bft) 100,00 %
02.03.2016 10:32 4,3 C 3,9 C 2,8 C 91 % 15 lf 999,0 hPa 0,0 l/m 0 min 2 min 108 W/m 16,7 km/h (3 Bft) 97,87 %
02.03.2016 10:34 4,3 C 3,9 C 2,8 C 91 % 15 lf 999,0 hPa 0,0 l/m 0 min 2 min 115 W/m 27,2 km/h (4 Bft) 97,83 %
02.03.2016 10:36 4,3 C 3,9 C 2,8 C 91 % 15 lf 999,0 hPa 0,0 l/m 0 min 2 min 92 W/m 27,2 km/h (4 Bft) 97,87 %
02.03.2016 10:38 4,2 C 3,9 C 2,8 C 91 % 15 lf 999,0 hPa 0,0 l/m 0 min 2 min 88 W/m 23,0 km/h (4 Bft) 100,00 %
02.03.2016 10:40 4,2 C 4,4 C 2,8 C 92 % 15 lf 999,0 hPa 0,0 l/m 0 min 2 min 113 W/m 16,7 km/h (3 Bft) 97,37 %
02.03.2016 10:42 4,2 C 5,0 C 3,3 C 92 % 15 lf 999,0 hPa 0,0 l/m 0 min 2 min 160 W/m 12,6 km/h (3 Bft) 91,49 %
02.03.2016 10:44 4,3 C 5,0 C 3,3 C 92 % 15 lf 999,0 hPa 0,0 l/m 2 min 2 min 221 W/m 33,5 km/h (5 Bft) 95,74 %
02.03.2016 10:46 4,3 C 5,0 C 3,9 C 92 % 15 lf 999,0 hPa 0,0 l/m 2 min 2 min 270 W/m 31,4 km/h (5 Bft) 96,15 %
02.03.2016 10:48 4,3 C 5,6 C 3,9 C 92 % 15 lf 999,0 hPa 0,0 l/m 2 min 0 min 257 W/m 16,7 km/h (3 Bft) 100,00 %
02.03.2016 10:50 4,4 C 5,6 C 3,9 C 93 % 15 lf 999,0 hPa 0,0 l/m 0 min 0 min 221 W/m 25,1 km/h (4 Bft) 86,84 %
02.03.2016 10:52 4,4 C 5,6 C 3,9 C 93 % 15 lf 999,1 hPa 0,0 l/m 0 min 2 min 221 W/m 23,0 km/h (4 Bft) 91,49 %
02.03.2016 10:54 4,4 C 5,6 C 3,9 C 93 % 15 lf 999,2 hPa 0,0 l/m 2 min 2 min 230 W/m 18,8 km/h (3 Bft) 97,87 %
02.03.2016 10:56 4,5 C 5,6 C 3,9 C 93 % 15 lf 999,2 hPa 0,0 l/m 0 min 0 min 211 W/m 27,2 km/h (4 Bft) 98,11 %
02.03.2016 10:58 4,5 C 5,6 C 3,9 C 93 % 15 lf 999,2 hPa 0,0 l/m 0 min 0 min 170 W/m 16,7 km/h (3 Bft) 95,65 %
02.03.2016 11:00 4,5 C 5,0 C 3,3 C 93 % 15 lf 999,2 hPa 0,0 l/m 0 min 0 min 145 W/m 31,4 km/h (5 Bft) 98,00 %
02.03.2016 11:02 4,5 C 5,0 C 3,3 C 93 % 15 lf 999,3 hPa 0,0 l/m 0 min 0 min 142 W/m 18,8 km/h (3 Bft) 91,49 %
02.03.2016 11:04 4,5 C 5,0 C 3,9 C 93 % 15 lf 999,3 hPa 0,0 l/m 0 min 0 min 182 W/m 18,8 km/h (3 Bft) 94,74 %
02.03.2016 11:06 4,6 C 5,6 C 3,9 C 93 % 15 lf 999,2 hPa 0,0 l/m 2 min 2 min 235 W/m 33,5 km/h (5 Bft) 95,74 %
02.03.2016 11:08 4,6 C 5,6 C 3,9 C 93 % 15 lf 999,3 hPa 0,0 l/m 0 min 2 min 219 W/m 23,0 km/h (4 Bft) 93,48 %
02.03.2016 11:10 4,6 C 6,7 C 4,4 C 93 % 15 lf 999,2 hPa 0,0 l/m 0 min 2 min 225 W/m 12,6 km/h (3 Bft) 93,62 %
02.03.2016 11:12 4,7 C 7,2 C 4,4 C 93 % 15 lf 999,3 hPa 0,0 l/m 2 min 0 min 264 W/m 27,2 km/h (4 Bft) 95,74 %
02.03.2016 11:14 4,7 C 7,2 C 4,4 C 94 % 15 lf 999,2 hPa 0,0 l/m 2 min 0 min 377 W/m 20,9 km/h (4 Bft) 93,62 %
02.03.2016 11:16 4,8 C 7,8 C 5,0 C 94 % 15 lf 999,2 hPa 0,0 l/m 2 min 0 min 258 W/m 20,9 km/h (4 Bft) 95,74 %
02.03.2016 11:18 4,8 C 8,3 C 5,6 C 94 % 15 lf 999,2 hPa 0,0 l/m 2 min 0 min 392 W/m 23,0 km/h (4 Bft) 91,49 %
02.03.2016 11:20 4,9 C 9,4 C 6,1 C 94 % 15 lf 999,2 hPa 0,0 l/m 2 min 2 min 418 W/m 27,2 km/h (4 Bft) 94,34 %
02.03.2016 11:22 4,9 C 9,4 C 6,1 C 94 % 15 lf 999,2 hPa 0,0 l/m 2 min 2 min 478 W/m 23,0 km/h (4 Bft) 93,48 %
02.03.2016 11:24 5,1 C 9,4 C 6,1 C 94 % 15 lf 999,2 hPa 0,0 l/m 2 min 2 min 554 W/m 37,7 km/h (5 Bft) 95,74 %
02.03.2016 11:26 5,2 C 9,4 C 6,1 C 94 % 15 lf 999,1 hPa 0,0 l/m 2 min 0 min 474 W/m 31,4 km/h (5 Bft) 94,00 %
02.03.2016 11:28 5,2 C 7,8 C 5,0 C 94 % 15 lf 999,1 hPa 0,0 l/m 2 min 0 min 407 W/m 29,3 km/h (5 Bft) 97,37 %
02.03.2016 11:30 5,3 C 7,2 C 4,4 C 94 % 15 lf 999,1 hPa 0,0 l/m 2 min 0 min 275 W/m 27,2 km/h (4 Bft) 93,62 %
02.03.2016 11:32 5,3 C 7,2 C 4,4 C 93 % 14 lf 999,1 hPa 0,0 l/m 2 min 0 min 257 W/m 27,2 km/h (4 Bft) 97,83 %
02.03.2016 11:34 5,3 C 8,3 C 5,0 C 93 % 13 lf 999,0 hPa 0,0 l/m 2 min 0 min 343 W/m 20,9 km/h (4 Bft) 100,00 %
02.03.2016 11:36 5,4 C 10,0 C 6,7 C 93 % 13 lf 999,0 hPa 0,0 l/m 2 min 0 min 402 W/m 25,1 km/h (4 Bft) 97,87 %
02.03.2016 11:38 5,5 C 11,1 C 6,7 C 93 % 11 lf 999,0 hPa 0,0 l/m 2 min 0 min 596 W/m 29,3 km/h (5 Bft) 97,87 %
02.03.2016 11:40 5,6 C 11,1 C 7,2 C 93 % 10 lf 999,0 hPa 0,0 l/m 2 min 0 min 571 W/m 27,2 km/h (4 Bft) 98,11 %
02.03.2016 11:42 5,7 C 10,0 C 6,7 C 93 % 9 lf 999,0 hPa 0,0 l/m 2 min 0 min 659 W/m 37,7 km/h (5 Bft) 97,87 %
02.03.2016 11:44 5,8 C 9,4 C 5,6 C 93 % 7 lf 998,9 hPa 0,0 l/m 2 min 0 min 313 W/m 27,2 km/h (4 Bft) 97,87 %
02.03.2016 11:46 5,8 C 10,6 C 6,1 C 92 % 6 lf 999,0 hPa 0,0 l/m 0 min 0 min 244 W/m 25,1 km/h (4 Bft) 100,00 %
02.03.2016 11:48 5,9 C 8,3 C 5,0 C 92 % 4 lf 999,0 hPa 0,0 l/m 0 min 0 min 180 W/m 20,9 km/h (4 Bft) 97,37 %
02.03.2016 11:50 5,9 C 7,8 C 5,0 C 92 % 4 lf 998,9 hPa 0,0 l/m 0 min 0 min 198 W/m 27,2 km/h (4 Bft) 97,87 %
02.03.2016 11:52 6,0 C 10,0 C 6,7 C 91 % 3 lf 999,0 hPa 0,0 l/m 0 min 0 min 246 W/m 27,2 km/h (4 Bft) 97,87 %
02.03.2016 11:54 6,1 C 10,0 C 6,7 C 91 % 3 lf 999,0 hPa 0,0 l/m 0 min 0 min 245 W/m 33,5 km/h (5 Bft) 98,11 %
02.03.2016 11:56 6,2 C 11,1 C 6,1 C 91 % 2 lf 999,0 hPa 0,0 l/m 2 min 0 min 264 W/m 35,6 km/h (5 Bft) 97,87 %
02.03.2016 11:58 6,3 C 10,0 C 5,6 C 91 % 1 lf 999,0 hPa 0,0 l/m 2 min 0 min 591 W/m 31,4 km/h (5 Bft) 100,00 %
02.03.2016 12:00 6,3 C 10,6 C 5,6 C 90 % 1 lf 999,0 hPa 0,0 l/m 2 min 0 min 288 W/m 29,3 km/h (5 Bft) 97,87 %
02.03.2016 12:02 6,4 C 12,2 C 6,7 C 90 % 0 lf 998,8 hPa 0,0 l/m 2 min 0 min 635 W/m 25,1 km/h (4 Bft) 95,74 %
02.03.2016 12:04 6,5 C 11,1 C 6,1 C 89 % 0 lf 998,8 hPa 0,0 l/m 2 min 0 min 564 W/m 27,2 km/h (4 Bft) 97,92 %
02.03.2016 12:06 6,6 C 12,8 C 5,6 C 88 % 0 lf 998,8 hPa 0,0 l/m 0 min 0 min 169 W/m 33,5 km/h (5 Bft) 94,00 %
02.03.2016 12:08 6,7 C 14,4 C 6,1 C 88 % 0 lf 998,8 hPa 0,0 l/m 2 min 0 min 669 W/m 16,7 km/h (3 Bft) 100,00 %
02.03.2016 12:10 6,8 C 12,8 C 5,6 C 88 % 0 lf 998,8 hPa 0,0 l/m 2 min 0 min 439 W/m 33,5 km/h (5 Bft) 93,62 %
02.03.2016 12:12 6,8 C 13,3 C 5,6 C 87 % 0 lf 998,8 hPa 0,0 l/m 0 min 0 min 171 W/m 35,6 km/h (5 Bft) 95,74 %
02.03.2016 12:14 6,9 C 15,0 C 5,6 C 87 % 0 lf 998,8 hPa 0,0 l/m 2 min 0 min 588 W/m 31,4 km/h (5 Bft) 91,49 %
02.03.2016 12:16 7,0 C 13,9 C 5,6 C 86 % 0 lf 998,8 hPa 0,0 l/m 2 min 0 min 703 W/m 37,7 km/h (5 Bft) 91,49 %
02.03.2016 12:18 7,1 C 15,0 C 5,6 C 86 % 0 lf 998,8 hPa 0,0 l/m 2 min 0 min 676 W/m 29,3 km/h (5 Bft) 96,30 %
02.03.2016 12:20 7,2 C 15,0 C 5,6 C 85 % 0 lf 998,8 hPa 0,0 l/m 2 min 0 min 612 W/m 35,6 km/h (5 Bft) 95,65 %
02.03.2016 12:22 7,3 C 15,6 C 5,6 C 84 % 0 lf 998,8 hPa 0,0 l/m 2 min 0 min 724 W/m 29,3 km/h (5 Bft) 96,00 %
02.03.2016 12:24 7,3 C 12,8 C 5,6 C 84 % 0 lf 998,8 hPa 0,0 l/m 2 min 0 min 346 W/m 33,5 km/h (5 Bft) 95,74 %
02.03.2016 12:26 7,4 C 11,7 C 5,6 C 83 % 0 lf 998,7 hPa 0,0 l/m 0 min 0 min 225 W/m 37,7 km/h (5 Bft) 95,74 %
02.03.2016 12:28 7,3 C 10,0 C 5,0 C 82 % 0 lf 998,7 hPa 0,0 l/m 0 min 0 min 221 W/m 37,7 km/h (5 Bft) 94,59 %
02.03.2016 12:30 7,3 C 11,1 C 5,6 C 82 % 0 lf 998,7 hPa 0,0 l/m 2 min 0 min 287 W/m 37,7 km/h (5 Bft) 93,48 %
02.03.2016 12:32 7,3 C 10,0 C 5,0 C 82 % 0 lf 998,7 hPa 0,0 l/m 0 min 0 min 244 W/m 29,3 km/h (5 Bft) 93,62 %
02.03.2016 12:34 7,3 C 11,7 C 5,6 C 81 % 0 lf 998,6 hPa 0,0 l/m 0 min 0 min 260 W/m 23,0 km/h (4 Bft) 95,74 %
02.03.2016 12:36 7,4 C 13,9 C 5,6 C 82 % 0 lf 998,6 hPa 0,0 l/m 2 min 0 min 634 W/m 27,2 km/h (4 Bft) 96,30 %
02.03.2016 12:38 7,4 C 12,8 C 5,6 C 82 % 0 lf 998,6 hPa 0,0 l/m 2 min 0 min 543 W/m 31,4 km/h (5 Bft) 96,00 %
02.03.2016 12:40 7,5 C 13,3 C 6,1 C 82 % 0 lf 998,5 hPa 0,0 l/m 2 min 0 min 562 W/m 27,2 km/h (4 Bft) 95,74 %
02.03.2016 12:42 7,6 C 14,4 C 6,1 C 81 % 0 lf 998,5 hPa 0,0 l/m 2 min 0 min 728 W/m 35,6 km/h (5 Bft) 94,44 %
02.03.2016 12:44 7,7 C 14,4 C 6,1 C 81 % 0 lf 998,5 hPa 0,0 l/m 2 min 0 min 773 W/m 27,2 km/h (4 Bft) 97,87 %
02.03.2016 12:46 7,8 C 15,0 C 6,7 C 81 % 0 lf 998,5 hPa 0,0 l/m 2 min 0 min 766 W/m 33,5 km/h (5 Bft) 91,49 %
02.03.2016 12:48 7,9 C 15,0 C 6,1 C 80 % 0 lf 998,5 hPa 0,0 l/m 2 min 0 min 736 W/m 43,9 km/h (6 Bft) 96,30 %
02.03.2016 12:50 8,0 C 13,9 C 5,6 C 79 % 0 lf 998,5 hPa 0,0 l/m 2 min 0 min 754 W/m 39,7 km/h (6 Bft) 95,74 %
02.03.2016 12:52 8,1 C 15,6 C 6,1 C 78 % 0 lf 998,4 hPa 0,0 l/m 2 min 0 min 741 W/m 31,4 km/h (5 Bft) 98,00 %
02.03.2016 12:54 8,2 C 14,4 C 5,6 C 79 % 0 lf 998,4 hPa 0,0 l/m 2 min 0 min 660 W/m 33,5 km/h (5 Bft) 91,30 %
02.03.2016 12:56 8,2 C 12,2 C 5,6 C 77 % 0 lf 998,4 hPa 0,0 l/m 2 min 0 min 642 W/m 35,6 km/h (5 Bft) 97,30 %
02.03.2016 12:58 8,1 C 10,6 C 5,0 C 77 % 0 lf 998,3 hPa 0,0 l/m 2 min 0 min 539 W/m 29,3 km/h (5 Bft) 93,62 %
02.03.2016 13:00 8,1 C 9,4 C 5,0 C 77 % 0 lf 998,2 hPa 0,0 l/m 0 min 0 min 130 W/m 29,3 km/h (5 Bft) 98,15 %
02.03.2016 13:02 7,9 C 9,4 C 5,0 C 77 % 0 lf 998,2 hPa 0,0 l/m 0 min 0 min 96 W/m 25,1 km/h (4 Bft) 97,87 %
02.03.2016 13:04 7,8 C 9,4 C 4,4 C 77 % 0 lf 998,2 hPa 0,0 l/m 0 min 0 min 97 W/m 31,4 km/h (5 Bft) 98,00 %
02.03.2016 13:06 7,7 C 8,9 C 4,4 C 76 % 0 lf 998,2 hPa 0,0 l/m 0 min 0 min 122 W/m 31,4 km/h (5 Bft) 97,83 %
02.03.2016 13:08 7,7 C 11,7 C 5,0 C 76 % 0 lf 998,1 hPa 0,0 l/m 0 min 0 min 216 W/m 29,3 km/h (5 Bft) 100,00 %
02.03.2016 13:10 7,7 C 13,9 C 5,0 C 76 % 0 lf 998,1 hPa 0,0 l/m 2 min 0 min 581 W/m 31,4 km/h (5 Bft) 97,87 %
02.03.2016 13:12 7,7 C 15,0 C 5,6 C 76 % 0 lf 998,0 hPa 0,0 l/m 2 min 0 min 562 W/m 33,5 km/h (5 Bft) 97,87 %
02.03.2016 13:14 7,8 C 14,4 C 5,6 C 77 % 0 lf 998,0 hPa 0,0 l/m 2 min 0 min 530 W/m 23,0 km/h (4 Bft) 97,87 %
02.03.2016 13:16 7,9 C 13,3 C 5,6 C 77 % 0 lf 998,1 hPa 0,0 l/m 0 min 0 min 174 W/m 35,6 km/h (5 Bft) 97,87 %
02.03.2016 13:18 7,9 C 11,7 C 5,6 C 75 % 0 lf 998,0 hPa 0,0 l/m 0 min 0 min 176 W/m 39,7 km/h (6 Bft) 97,83 %
02.03.2016 13:20 7,9 C 10,6 C 5,0 C 74 % 0 lf 998,0 hPa 0,0 l/m 0 min 0 min 212 W/m 27,2 km/h (4 Bft) 97,87 %
02.03.2016 13:22 7,9 C 12,2 C 5,6 C 74 % 0 lf 998,0 hPa 0,0 l/m 0 min 0 min 178 W/m 29,3 km/h (5 Bft) 97,87 %
02.03.2016 13:24 7,9 C 12,2 C 5,6 C 75 % 0 lf 997,9 hPa 0,0 l/m 0 min 0 min 178 W/m 23,0 km/h (4 Bft) 91,49 %
02.03.2016 13:26 7,9 C 12,8 C 5,6 C 75 % 0 lf 997,9 hPa 0,0 l/m 0 min 0 min 181 W/m 25,1 km/h (4 Bft) 98,15 %
02.03.2016 13:28 7,9 C 13,3 C 5,6 C 74 % 0 lf 997,9 hPa 0,0 l/m 2 min 0 min 472 W/m 27,2 km/h (4 Bft) 96,00 %
02.03.2016 13:30 8,0 C 15,0 C 5,6 C 74 % 0 lf 997,7 hPa 0,0 l/m 2 min 0 min 569 W/m 29,3 km/h (5 Bft) 95,65 %
02.03.2016 13:32 8,1 C 15,6 C 5,6 C 74 % 0 lf 997,7 hPa 0,0 l/m 2 min 0 min 570 W/m 23,0 km/h (4 Bft) 97,87 %
02.03.2016 13:34 8,2 C 15,0 C 5,6 C 75 % 0 lf 997,6 hPa 0,0 l/m 2 min 0 min 570 W/m 25,1 km/h (4 Bft) 95,74 %
02.03.2016 13:36 8,3 C 12,2 C 5,6 C 73 % 0 lf 997,6 hPa 0,0 l/m 2 min 0 min 570 W/m 33,5 km/h (5 Bft) 97,87 %
02.03.2016 13:38 8,3 C 12,2 C 5,0 C 72 % 0 lf 997,6 hPa 0,0 l/m 2 min 0 min 540 W/m 31,4 km/h (5 Bft) 97,87 %
02.03.2016 13:40 8,2 C 12,8 C 5,0 C 71 % 0 lf 997,5 hPa 0,0 l/m 2 min 0 min 523 W/m 41,8 km/h (6 Bft) 95,74 %
02.03.2016 13:42 8,2 C 13,3 C 5,0 C 71 % 0 lf 997,5 hPa 0,0 l/m 2 min 0 min 547 W/m 31,4 km/h (5 Bft) 97,83 %
02.03.2016 13:44 8,3 C 14,4 C 5,6 C 71 % 0 lf 997,5 hPa 0,0 l/m 2 min 0 min 555 W/m 31,4 km/h (5 Bft) 95,74 %
02.03.2016 13:46 8,3 C 15,0 C 5,6 C 70 % 0 lf 997,5 hPa 0,0 l/m 2 min 0 min 561 W/m 31,4 km/h (5 Bft) 94,59 %
02.03.2016 13:48 8,4 C 16,1 C 6,1 C 71 % 0 lf 997,4 hPa 0,0 l/m 2 min 0 min 537 W/m 23,0 km/h (4 Bft) 93,62 %
02.03.2016 13:50 8,6 C 16,1 C 6,1 C 70 % 0 lf 997,4 hPa 0,0 l/m 2 min 0 min 557 W/m 27,2 km/h (4 Bft) 95,74 %
02.03.2016 13:52 8,7 C 17,8 C 6,7 C 71 % 0 lf 997,3 hPa 0,0 l/m 2 min 0 min 585 W/m 23,0 km/h (4 Bft) 93,48 %
02.03.2016 13:54 8,8 C 16,7 C 6,7 C 70 % 0 lf 997,3 hPa 0,0 l/m 2 min 0 min 595 W/m 20,9 km/h (4 Bft) 93,62 %
02.03.2016 13:56 8,9 C 16,1 C 6,7 C 70 % 0 lf 997,4 hPa 0,0 l/m 2 min 0 min 529 W/m 29,3 km/h (5 Bft) 95,74 %
02.03.2016 13:58 9,0 C 16,1 C 6,7 C 69 % 0 lf 997,3 hPa 0,0 l/m 2 min 0 min 300 W/m 37,7 km/h (5 Bft) 90,74 %
02.03.2016 14:00 9,1 C 16,1 C 7,2 C 68 % 0 lf 997,2 hPa 0,0 l/m 2 min 0 min 571 W/m 25,1 km/h (4 Bft) 95,74 %
02.03.2016 14:02 9,2 C 16,1 C 7,8 C 69 % 0 lf 997,2 hPa 0,0 l/m 2 min 0 min 575 W/m 43,9 km/h (6 Bft) 95,74 %
02.03.2016 14:04 9,3 C 16,1 C 7,8 C 68 % 0 lf 997,3 hPa 0,0 l/m 2 min 0 min 582 W/m 37,7 km/h (5 Bft) 91,49 %
02.03.2016 14:06 9,3 C 16,7 C 7,8 C 68 % 0 lf 997,3 hPa 0,0 l/m 2 min 0 min 564 W/m 29,3 km/h (5 Bft) 95,92 %
02.03.2016 14:08 9,4 C 17,2 C 7,8 C 69 % 0 lf 997,2 hPa 0,0 l/m 2 min 0 min 541 W/m 23,0 km/h (4 Bft) 91,49 %
02.03.2016 14:10 9,5 C 16,7 C 7,8 C 68 % 0 lf 997,2 hPa 0,0 l/m 2 min 0 min 547 W/m 31,4 km/h (5 Bft) 95,74 %
02.03.2016 14:12 9,4 C 15,6 C 7,8 C 66 % 0 lf 997,2 hPa 0,0 l/m 2 min 0 min 558 W/m 37,7 km/h (5 Bft) 95,74 %
02.03.2016 14:14 9,4 C 15,6 C 7,8 C 65 % 0 lf 997,0 hPa 0,0 l/m 2 min 0 min 549 W/m 39,7 km/h (6 Bft) 95,74 %
02.03.2016 14:16 9,5 C 16,1 C 7,8 C 65 % 0 lf 997,0 hPa 0,0 l/m 2 min 0 min 520 W/m 33,5 km/h (5 Bft) 95,65 %
02.03.2016 14:18 9,5 C 16,1 C 7,8 C 65 % 0 lf 996,9 hPa 0,0 l/m 2 min 0 min 512 W/m 39,7 km/h (6 Bft) 94,59 %
02.03.2016 14:20 9,5 C 15,0 C 7,8 C 64 % 0 lf 996,9 hPa 0,0 l/m 2 min 0 min 513 W/m 46,0 km/h (6 Bft) 97,87 %
02.03.2016 14:22 9,4 C 13,9 C 7,2 C 64 % 0 lf 996,9 hPa 0,0 l/m 2 min 0 min 455 W/m 41,8 km/h (6 Bft) 93,62 %
02.03.2016 14:24 9,4 C 13,9 C 7,2 C 63 % 0 lf 996,9 hPa 0,0 l/m 2 min 0 min 408 W/m 39,7 km/h (6 Bft) 97,87 %
02.03.2016 14:26 9,3 C 12,8 C 7,2 C 63 % 0 lf 996,9 hPa 0,0 l/m 2 min 0 min 501 W/m 39,7 km/h (6 Bft) 95,74 %
02.03.2016 14:28 9,2 C 13,9 C 7,2 C 64 % 0 lf 996,8 hPa 0,0 l/m 2 min 0 min 512 W/m 43,9 km/h (6 Bft) 97,83 %
02.03.2016 14:30 9,2 C 14,4 C 7,2 C 64 % 0 lf 996,8 hPa 0,0 l/m 2 min 0 min 530 W/m 33,5 km/h (5 Bft) 95,74 %
02.03.2016 14:32 9,2 C 15,0 C 7,8 C 64 % 0 lf 996,8 hPa 0,0 l/m 2 min 0 min 527 W/m 33,5 km/h (5 Bft) 91,49 %
02.03.2016 14:34 9,3 C 13,9 C 7,8 C 64 % 0 lf 996,7 hPa 0,0 l/m 2 min 0 min 506 W/m 33,5 km/h (5 Bft) 96,30 %
02.03.2016 14:36 9,2 C 13,9 C 7,2 C 63 % 0 lf 996,8 hPa 0,0 l/m 0 min 0 min 157 W/m 37,7 km/h (5 Bft) 97,87 %
02.03.2016 14:38 9,2 C 13,9 C 7,2 C 63 % 0 lf 996,8 hPa 0,0 l/m 2 min 0 min 487 W/m 39,7 km/h (6 Bft) 97,87 %
02.03.2016 14:40 9,2 C 14,4 C 7,2 C 63 % 0 lf 996,7 hPa 0,0 l/m 2 min 0 min 504 W/m 29,3 km/h (5 Bft) 93,88 %
02.03.2016 14:42 9,2 C 15,6 C 7,8 C 62 % 0 lf 996,8 hPa 0,0 l/m 2 min 0 min 540 W/m 39,7 km/h (6 Bft) 97,87 %
02.03.2016 14:44 9,2 C 16,1 C 7,8 C 62 % 0 lf 996,7 hPa 0,0 l/m 2 min 0 min 556 W/m 35,6 km/h (5 Bft) 97,87 %
02.03.2016 14:46 9,3 C 16,1 C 7,8 C 62 % 0 lf 996,7 hPa 0,0 l/m 2 min 0 min 546 W/m 41,8 km/h (6 Bft) 95,74 %
02.03.2016 14:48 9,3 C 16,1 C 7,8 C 61 % 0 lf 996,6 hPa 0,0 l/m 2 min 0 min 518 W/m 35,6 km/h (5 Bft) 91,89 %
02.03.2016 14:50 9,4 C 15,6 C 7,8 C 61 % 0 lf 996,6 hPa 0,0 l/m 2 min 0 min 511 W/m 39,7 km/h (6 Bft) 93,62 %
02.03.2016 14:52 9,4 C 15,0 C 7,8 C 61 % 0 lf 996,6 hPa 0,0 l/m 2 min 0 min 487 W/m 35,6 km/h (5 Bft) 95,65 %
02.03.2016 14:54 9,5 C 15,6 C 7,8 C 61 % 0 lf 996,6 hPa 0,0 l/m 2 min 0 min 475 W/m 27,2 km/h (4 Bft) 95,74 %
02.03.2016 14:56 9,5 C 13,3 C 7,8 C 61 % 0 lf 996,5 hPa 0,0 l/m 2 min 0 min 462 W/m 29,3 km/h (5 Bft) 95,74 %
02.03.2016 14:58 9,4 C 11,7 C 7,2 C 61 % 0 lf 996,4 hPa 0,0 l/m 0 min 0 min 167 W/m 41,8 km/h (6 Bft) 95,74 %
02.03.2016 15:00 9,3 C 12,8 C 7,2 C 61 % 0 lf 996,4 hPa 0,0 l/m 2 min 0 min 283 W/m 35,6 km/h (5 Bft) 97,87 %
02.03.2016 15:02 9,2 C 14,4 C 7,2 C 62 % 0 lf 996,4 hPa 0,0 l/m 2 min 0 min 433 W/m 29,3 km/h (5 Bft) 97,83 %
02.03.2016 15:04 9,2 C 15,0 C 7,2 C 63 % 0 lf 996,5 hPa 0,0 l/m 2 min 0 min 426 W/m 31,4 km/h (5 Bft) 94,44 %
02.03.2016 15:06 9,2 C 15,6 C 7,2 C 63 % 0 lf 996,4 hPa 0,0 l/m 2 min 0 min 426 W/m 29,3 km/h (5 Bft) 95,74 %
02.03.2016 15:08 9,2 C 15,6 C 7,2 C 63 % 0 lf 996,3 hPa 0,0 l/m 2 min 0 min 424 W/m 23,0 km/h (4 Bft) 95,74 %
02.03.2016 15:10 9,3 C 15,6 C 7,2 C 63 % 0 lf 996,3 hPa 0,0 l/m 2 min 0 min 414 W/m 23,0 km/h (4 Bft) 97,87 %
02.03.2016 15:12 9,3 C 15,6 C 7,2 C 63 % 0 lf 996,3 hPa 0,0 l/m 2 min 0 min 418 W/m 29,3 km/h (5 Bft) 97,87 %
02.03.2016 15:14 9,3 C 13,9 C 7,2 C 62 % 0 lf 996,3 hPa 0,0 l/m 2 min 0 min 337 W/m 31,4 km/h (5 Bft) 100,00 %
02.03.2016 15:16 9,2 C 12,2 C 7,2 C 62 % 0 lf 996,3 hPa 0,0 l/m 0 min 0 min 155 W/m 27,2 km/h (4 Bft) 97,30 %
02.03.2016 15:18 9,2 C 11,1 C 7,2 C 62 % 0 lf 996,2 hPa 0,0 l/m 0 min 0 min 184 W/m 25,1 km/h (4 Bft) 100,00 %
02.03.2016 15:20 9,1 C 11,1 C 7,8 C 62 % 0 lf 996,2 hPa 0,0 l/m 0 min 0 min 189 W/m 16,7 km/h (3 Bft) 95,74 %
02.03.2016 15:22 9,1 C 11,1 C 7,8 C 62 % 0 lf 996,2 hPa 0,0 l/m 2 min 0 min 215 W/m 23,0 km/h (4 Bft) 98,15 %
02.03.2016 15:24 9,1 C 11,1 C 7,8 C 62 % 0 lf 996,2 hPa 0,0 l/m 2 min 0 min 236 W/m 18,8 km/h (3 Bft) 95,74 %
02.03.2016 15:26 9,1 C 11,1 C 7,8 C 62 % 0 lf 996,2 hPa 0,0 l/m 2 min 0 min 216 W/m 16,7 km/h (3 Bft) 93,88 %
02.03.2016 15:28 9,1 C 11,1 C 7,8 C 62 % 0 lf 996,2 hPa 0,0 l/m 2 min 0 min 212 W/m 14,6 km/h (3 Bft) 97,87 %
02.03.2016 15:30 9,1 C 10,6 C 7,8 C 63 % 0 lf 996,1 hPa 0,0 l/m 0 min 0 min 159 W/m 16,7 km/h (3 Bft) 97,30 %
02.03.2016 15:32 9,1 C 10,6 C 7,8 C 63 % 0 lf 996,2 hPa 0,0 l/m 0 min 0 min 141 W/m 27,2 km/h (4 Bft) 93,62 %
02.03.2016 15:34 9,0 C 10,0 C 7,8 C 63 % 0 lf 996,1 hPa 0,0 l/m 0 min 0 min 157 W/m 16,7 km/h (3 Bft) 95,74 %
02.03.2016 15:36 9,0 C 10,0 C 7,8 C 63 % 0 lf 996,1 hPa 0,0 l/m 0 min 0 min 167 W/m 14,6 km/h (3 Bft) 95,74 %
02.03.2016 15:38 8,9 C 10,0 C 7,8 C 63 % 0 lf 996,1 hPa 0,0 l/m 0 min 0 min 153 W/m 14,6 km/h (3 Bft) 97,83 %
02.03.2016 15:40 8,9 C 10,0 C 7,8 C 63 % 0 lf 996,1 hPa 0,0 l/m 0 min 0 min 158 W/m 29,3 km/h (5 Bft) 97,87 %
02.03.2016 15:42 8,9 C 10,6 C 7,8 C 63 % 0 lf 996,0 hPa 0,0 l/m 2 min 0 min 204 W/m 27,2 km/h (4 Bft) 93,62 %
02.03.2016 15:44 8,9 C 10,6 C 7,8 C 62 % 0 lf 996,0 hPa 0,0 l/m 2 min 0 min 197 W/m 31,4 km/h (5 Bft) 97,87 %
02.03.2016 15:46 8,9 C 10,0 C 7,8 C 62 % 0 lf 996,0 hPa 0,0 l/m 2 min 0 min 179 W/m 25,1 km/h (4 Bft) 97,87 %
02.03.2016 15:48 8,8 C 10,6 C 7,8 C 62 % 0 lf 996,0 hPa 0,0 l/m 2 min 0 min 173 W/m 20,9 km/h (4 Bft) 97,87 %
02.03.2016 15:50 8,8 C 10,0 C 7,8 C 62 % 0 lf 996,0 hPa 0,0 l/m 2 min 0 min 171 W/m 23,0 km/h (4 Bft) 95,65 %
02.03.2016 15:52 8,8 C 9,4 C 7,8 C 62 % 0 lf 995,9 hPa 0,0 l/m 0 min 0 min 148 W/m 20,9 km/h (4 Bft) 93,62 %
02.03.2016 15:54 8,8 C 9,4 C 7,8 C 61 % 0 lf 995,9 hPa 0,0 l/m 0 min 0 min 139 W/m 23,0 km/h (4 Bft) 95,74 %
02.03.2016 15:56 8,8 C 9,4 C 7,2 C 62 % 0 lf 995,9 hPa 0,0 l/m 0 min 0 min 125 W/m 12,6 km/h (3 Bft) 93,62 %
02.03.2016 15:58 8,7 C 9,4 C 7,2 C 62 % 0 lf 995,8 hPa 0,0 l/m 0 min 0 min 123 W/m 27,2 km/h (4 Bft) 97,87 %
02.03.2016 16:00 8,7 C 9,4 C 7,2 C 62 % 0 lf 995,8 hPa 0,0 l/m 0 min 0 min 114 W/m 20,9 km/h (4 Bft) 95,74 %
02.03.2016 16:02 8,7 C 8,9 C 7,2 C 62 % 0 lf 995,8 hPa 0,0 l/m 0 min 0 min 93 W/m 14,6 km/h (3 Bft) 97,83 %
02.03.2016 16:04 8,7 C 8,9 C 7,2 C 62 % 0 lf 995,7 hPa 0,0 l/m 0 min 0 min 85 W/m 20,9 km/h (4 Bft) 93,62 %
02.03.2016 16:06 8,7 C 8,9 C 7,2 C 62 % 0 lf 995,8 hPa 0,0 l/m 0 min 0 min 105 W/m 29,3 km/h (5 Bft) 95,74 %
02.03.2016 16:08 8,7 C 9,4 C 7,2 C 63 % 0 lf 995,7 hPa 0,0 l/m 0 min 0 min 117 W/m 23,0 km/h (4 Bft) 93,62 %
02.03.2016 16:10 8,6 C 9,4 C 7,2 C 63 % 0 lf 995,7 hPa 0,0 l/m 0 min 0 min 111 W/m 20,9 km/h (4 Bft) 95,74 %
02.03.2016 16:12 8,6 C 9,4 C 7,2 C 63 % 0 lf 995,7 hPa 0,0 l/m 0 min 0 min 108 W/m 14,6 km/h (3 Bft) 95,74 %
02.03.2016 16:14 8,6 C 8,9 C 7,2 C 63 % 0 lf 995,6 hPa 0,0 l/m 0 min 0 min 102 W/m 18,8 km/h (3 Bft) 100,00 %
02.03.2016 16:16 8,6 C 9,4 C 7,2 C 63 % 0 lf 995,5 hPa 0,0 l/m 0 min 0 min 83 W/m 14,6 km/h (3 Bft) 93,62 %
02.03.2016 16:18 8,6 C 8,9 C 7,2 C 63 % 0 lf 995,5 hPa 0,0 l/m 0 min 0 min 74 W/m 31,4 km/h (5 Bft) 95,74 %
02.03.2016 16:20 8,6 C 8,9 C 7,2 C 63 % 0 lf 995,5 hPa 0,0 l/m 0 min 0 min 78 W/m 23,0 km/h (4 Bft) 95,74 %
02.03.2016 16:22 8,6 C 8,9 C 7,2 C 64 % 0 lf 995,5 hPa 0,0 l/m 0 min 0 min 89 W/m 20,9 km/h (4 Bft) 96,30 %
02.03.2016 16:24 8,6 C 8,9 C 7,2 C 64 % 0 lf 995,5 hPa 0,0 l/m 0 min 0 min 94 W/m 18,8 km/h (3 Bft) 97,87 %
02.03.2016 16:26 8,6 C 8,9 C 7,2 C 64 % 0 lf 995,5 hPa 0,0 l/m 0 min 0 min 79 W/m 27,2 km/h (4 Bft) 95,65 %
02.03.2016 16:28 8,6 C 8,9 C 7,2 C 64 % 0 lf 995,5 hPa 0,0 l/m 0 min 0 min 90 W/m 14,6 km/h (3 Bft) 97,87 %
02.03.2016 16:30 8,6 C 8,9 C 7,2 C 64 % 0 lf 995,5 hPa 0,0 l/m 0 min 0 min 92 W/m 23,0 km/h (4 Bft) 91,49 %
02.03.2016 16:32 8,6 C 8,9 C 7,2 C 64 % 0 lf 995,4 hPa 0,0 l/m 0 min 0 min 68 W/m 29,3 km/h (5 Bft) 91,49 %
02.03.2016 16:34 8,5 C 8,9 C 7,2 C 64 % 0 lf 995,4 hPa 0,0 l/m 0 min 0 min 50 W/m 29,3 km/h (5 Bft) 97,87 %
02.03.2016 16:36 8,5 C 8,9 C 7,2 C 64 % 0 lf 995,4 hPa 0,0 l/m 0 min 0 min 51 W/m 18,8 km/h (3 Bft) 97,87 %
02.03.2016 16:38 8,5 C 8,9 C 6,7 C 64 % 0 lf 995,4 hPa 0,0 l/m 0 min 0 min 48 W/m 31,4 km/h (5 Bft) 97,83 %
02.03.2016 16:40 8,5 C 8,3 C 6,7 C 64 % 0 lf 995,4 hPa 0,0 l/m 0 min 0 min 40 W/m 27,2 km/h (4 Bft) 95,74 %
02.03.2016 16:42 8,4 C 8,3 C 6,7 C 65 % 0 lf 995,4 hPa 0,0 l/m 0 min 2 min 30 W/m 37,7 km/h (5 Bft) 95,74 %
02.03.2016 16:44 8,4 C 7,8 C 6,1 C 66 % 6 lf 995,6 hPa 0,0 l/m 0 min 2 min 23 W/m 35,6 km/h (5 Bft) 95,74 %
02.03.2016 16:46 8,3 C 7,2 C 5,0 C 68 % 15 lf 995,8 hPa 0,0 l/m 0 min 2 min 18 W/m 41,8 km/h (6 Bft) 91,49 %
02.03.2016 16:48 8,2 C 6,1 C 4,4 C 70 % 15 lf 995,8 hPa 0,0 l/m 0 min 2 min 15 W/m 41,8 km/h (6 Bft) 91,49 %
02.03.2016 16:50 8,0 C 6,1 C 4,4 C 71 % 15 lf 995,8 hPa 0,0 l/m 0 min 2 min 13 W/m 37,7 km/h (5 Bft) 97,83 %
02.03.2016 16:52 7,8 C 5,6 C 3,9 C 72 % 15 lf 995,7 hPa 0,0 l/m 0 min 2 min 16 W/m 31,4 km/h (5 Bft) 97,87 %
02.03.2016 16:54 7,7 C 5,6 C 3,9 C 74 % 15 lf 995,7 hPa 0,0 l/m 0 min 2 min 22 W/m 23,0 km/h (4 Bft) 97,87 %
02.03.2016 16:56 7,6 C 5,6 C 3,9 C 74 % 15 lf 995,6 hPa 0,0 l/m 0 min 0 min 34 W/m 18,8 km/h (3 Bft) 97,87 %
02.03.2016 16:58 7,5 C 5,6 C 3,9 C 75 % 15 lf 995,6 hPa 0,0 l/m 0 min 0 min 58 W/m 12,6 km/h (3 Bft) 97,87 %
02.03.2016 17:00 7,4 C 5,6 C 3,9 C 76 % 15 lf 995,7 hPa 0,0 l/m 2 min 0 min 92 W/m 18,8 km/h (3 Bft) 97,83 %
02.03.2016 17:02 7,3 C 6,1 C 3,9 C 76 % 15 lf 995,6 hPa 0,0 l/m 2 min 0 min 92 W/m 14,6 km/h (3 Bft) 93,62 %
02.03.2016 17:04 7,2 C 6,1 C 4,4 C 76 % 15 lf 995,5 hPa 0,0 l/m 2 min 0 min 121 W/m 10,5 km/h (2 Bft) 97,87 %
02.03.2016 17:06 7,2 C 6,7 C 4,4 C 77 % 15 lf 995,5 hPa 0,0 l/m 2 min 0 min 156 W/m 16,7 km/h (3 Bft) 95,74 %
02.03.2016 17:08 7,1 C 6,7 C 4,4 C 78 % 15 lf 995,5 hPa 0,0 l/m 2 min 0 min 128 W/m 14,6 km/h (3 Bft) 97,87 %
02.03.2016 17:10 7,1 C 6,7 C 4,4 C 78 % 15 lf 995,4 hPa 0,0 l/m 2 min 0 min 94 W/m 10,5 km/h (2 Bft) 95,74 %
02.03.2016 17:12 7,0 C 6,7 C 4,4 C 79 % 15 lf 995,3 hPa 0,0 l/m 0 min 0 min 75 W/m 10,5 km/h (2 Bft) 97,83 %
02.03.2016 17:14 7,0 C 6,1 C 4,4 C 79 % 15 lf 995,2 hPa 0,0 l/m 0 min 0 min 58 W/m 10,5 km/h (2 Bft) 97,87 %
02.03.2016 17:16 6,9 C 6,1 C 4,4 C 79 % 15 lf 995,1 hPa 0,0 l/m 0 min 0 min 51 W/m 14,6 km/h (3 Bft) 100,00 %
02.03.2016 17:18 6,9 C 6,1 C 4,4 C 79 % 14 lf 995,1 hPa 0,0 l/m 0 min 0 min 48 W/m 12,6 km/h (3 Bft) 97,87 %
02.03.2016 17:20 6,8 C 6,1 C 4,4 C 79 % 14 lf 995,1 hPa 0,0 l/m 0 min 0 min 43 W/m 10,5 km/h (2 Bft) 93,62 %
02.03.2016 17:22 6,8 C 6,1 C 4,4 C 80 % 13 lf 995,1 hPa 0,0 l/m 0 min 0 min 39 W/m 10,5 km/h (2 Bft) 92,00 %
02.03.2016 17:24 6,8 C 6,1 C 3,9 C 80 % 12 lf 995,1 hPa 0,0 l/m 0 min 0 min 39 W/m 10,5 km/h (2 Bft) 95,65 %
02.03.2016 17:26 6,7 C 6,1 C 3,9 C 80 % 11 lf 995,2 hPa 0,0 l/m 0 min 0 min 39 W/m 10,5 km/h (2 Bft) 97,87 %
02.03.2016 17:28 6,7 C 6,1 C 3,9 C 80 % 9 lf 995,1 hPa 0,0 l/m 0 min 0 min 37 W/m 8,4 km/h (2 Bft) 95,74 %
02.03.2016 17:30 6,7 C 6,1 C 3,9 C 81 % 7 lf 995,1 hPa 0,0 l/m 0 min 0 min 35 W/m 10,5 km/h (2 Bft) 91,49 %
02.03.2016 17:32 6,7 C 6,1 C 3,9 C 81 % 5 lf 995,0 hPa 0,0 l/m 0 min 0 min 33 W/m 8,4 km/h (2 Bft) 97,87 %
02.03.2016 17:34 6,6 C 6,1 C 3,9 C 81 % 4 lf 995,0 hPa 0,0 l/m 0 min 0 min 33 W/m 12,6 km/h (3 Bft) 100,00 %
02.03.2016 17:36 6,6 C 6,1 C 3,9 C 81 % 3 lf 994,9 hPa 0,0 l/m 0 min 0 min 32 W/m 18,8 km/h (3 Bft) 95,74 %
02.03.2016 17:38 6,5 C 6,1 C 4,4 C 81 % 1 lf 994,8 hPa 0,0 l/m 0 min 0 min 30 W/m 18,8 km/h (3 Bft) 93,62 %
02.03.2016 17:40 6,4 C 6,1 C 4,4 C 80 % 0 lf 994,8 hPa 0,0 l/m 0 min 0 min 28 W/m 25,1 km/h (4 Bft) 100,00 %
02.03.2016 17:42 6,4 C 6,1 C 4,4 C 80 % 0 lf 994,7 hPa 0,0 l/m 0 min 0 min 26 W/m 23,0 km/h (4 Bft) 100,00 %
02.03.2016 17:44 6,4 C 6,1 C 4,4 C 79 % 0 lf 994,7 hPa 0,0 l/m 0 min 0 min 25 W/m 16,7 km/h (3 Bft) 97,87 %
02.03.2016 17:46 6,4 C 6,7 C 4,4 C 79 % 0 lf 994,8 hPa 0,0 l/m 0 min 0 min 24 W/m 18,8 km/h (3 Bft) 97,83 %
02.03.2016 17:48 6,3 C 6,7 C 4,4 C 78 % 0 lf 994,7 hPa 0,0 l/m 0 min 0 min 21 W/m 23,0 km/h (4 Bft) 97,87 %
02.03.2016 17:50 6,3 C 6,7 C 4,4 C 78 % 0 lf 994,7 hPa 0,0 l/m 0 min 0 min 19 W/m 18,8 km/h (3 Bft) 94,59 %
02.03.2016 17:52 6,3 C 6,1 C 4,4 C 78 % 0 lf 994,6 hPa 0,0 l/m 0 min 0 min 17 W/m 12,6 km/h (3 Bft) 97,87 %
02.03.2016 17:54 6,3 C 6,1 C 4,4 C 78 % 0 lf 994,7 hPa 0,2 l/m 0 min 0 min 15 W/m 18,8 km/h (3 Bft) 95,74 %
02.03.2016 17:56 6,3 C 6,7 C 4,4 C 77 % 0 lf 994,7 hPa 0,0 l/m 0 min 0 min 13 W/m 18,8 km/h (3 Bft) 93,62 %
02.03.2016 17:58 6,3 C 6,1 C 4,4 C 78 % 0 lf 994,6 hPa 0,0 l/m 0 min 0 min 12 W/m 16,7 km/h (3 Bft) 93,48 %
02.03.2016 18:00 6,3 C 6,1 C 4,4 C 78 % 0 lf 994,6 hPa 0,0 l/m 0 min 0 min 11 W/m 23,0 km/h (4 Bft) 95,74 %
02.03.2016 18:02 6,2 C 6,1 C 4,4 C 78 % 0 lf 994,6 hPa 0,0 l/m 0 min 0 min 10 W/m 20,9 km/h (4 Bft) 95,74 %
02.03.2016 18:04 6,2 C 6,1 C 4,4 C 78 % 0 lf 994,5 hPa 0,0 l/m 0 min 0 min 9 W/m 14,6 km/h (3 Bft) 95,74 %
02.03.2016 18:06 6,2 C 6,1 C 4,4 C 78 % 0 lf 994,5 hPa 0,0 l/m 0 min 0 min 9 W/m 16,7 km/h (3 Bft) 97,87 %
02.03.2016 18:08 6,2 C 6,1 C 4,4 C 78 % 0 lf 994,5 hPa 0,0 l/m 0 min 0 min 8 W/m 14,6 km/h (3 Bft) 97,87 %
02.03.2016 18:10 6,2 C 6,1 C 4,4 C 78 % 0 lf 994,5 hPa 0,0 l/m 0 min 0 min 7 W/m 18,8 km/h (3 Bft) 93,48 %
02.03.2016 18:12 6,2 C 6,1 C 4,4 C 79 % 0 lf 994,4 hPa 0,0 l/m 0 min 0 min 6 W/m 12,6 km/h (3 Bft) 93,62 %
02.03.2016 18:14 6,1 C 5,6 C 3,9 C 79 % 0 lf 994,5 hPa 0,0 l/m 0 min 0 min 5 W/m 12,6 km/h (3 Bft) 91,49 %
02.03.2016 18:16 6,1 C 5,6 C 3,9 C 79 % 0 lf 994,5 hPa 0,0 l/m 0 min 0 min 5 W/m 10,5 km/h (2 Bft) 93,62 %
02.03.2016 18:18 6,1 C 5,6 C 3,9 C 79 % 0 lf 994,5 hPa 0,0 l/m 0 min 0 min 5 W/m 16,7 km/h (3 Bft) 91,49 %
02.03.2016 18:20 6,0 C 5,6 C 3,9 C 79 % 0 lf 994,4 hPa 0,0 l/m 0 min 0 min 0 W/m 14,6 km/h (3 Bft) 91,49 %
02.03.2016 18:22 6,0 C 5,6 C 3,9 C 80 % 0 lf 994,5 hPa 0,0 l/m 0 min 0 min 0 W/m 16,7 km/h (3 Bft) 92,59 %
02.03.2016 18:24 5,9 C 5,6 C 3,9 C 80 % 0 lf 994,5 hPa 0,0 l/m 0 min 0 min 0 W/m 20,9 km/h (4 Bft) 93,62 %
02.03.2016 18:26 5,9 C 5,6 C 3,9 C 80 % 0 lf 994,4 hPa 0,0 l/m 0 min 0 min 0 W/m 25,1 km/h (4 Bft) 93,62 %
02.03.2016 18:28 5,8 C 6,1 C 4,4 C 80 % 0 lf 994,5 hPa 0,0 l/m 0 min 0 min 0 W/m 25,1 km/h (4 Bft) 89,36 %
02.03.2016 18:30 5,8 C 6,1 C 4,4 C 80 % 0 lf 994,5 hPa 0,0 l/m 0 min 0 min 0 W/m 31,4 km/h (5 Bft) 93,62 %
02.03.2016 18:32 5,8 C 6,1 C 4,4 C 80 % 0 lf 994,5 hPa 0,0 l/m 0 min 0 min 0 W/m 25,1 km/h (4 Bft) 93,62 %
02.03.2016 18:34 5,8 C 6,1 C 4,4 C 80 % 0 lf 994,6 hPa 0,0 l/m 0 min 0 min 0 W/m 25,1 km/h (4 Bft) 93,48 %
02.03.2016 18:36 5,9 C 6,7 C 5,0 C 80 % 0 lf 994,6 hPa 0,0 l/m 0 min 0 min 0 W/m 20,9 km/h (4 Bft) 93,62 %
02.03.2016 18:38 5,9 C 6,7 C 5,0 C 80 % 1 lf 994,6 hPa 0,0 l/m 0 min 0 min 0 W/m 18,8 km/h (3 Bft) 93,62 %
02.03.2016 18:40 5,9 C 6,7 C 5,0 C 80 % 0 lf 994,8 hPa 0,0 l/m 0 min 2 min 0 W/m 23,0 km/h (4 Bft) 93,62 %
02.03.2016 18:42 5,9 C 6,7 C 5,0 C 79 % 0 lf 995,0 hPa 0,0 l/m 0 min 0 min 0 W/m 29,3 km/h (5 Bft) 92,11 %
02.03.2016 18:44 6,0 C 6,1 C 5,0 C 78 % 2 lf 995,0 hPa 0,0 l/m 0 min 2 min 0 W/m 52,3 km/h (7 Bft) 93,62 %
02.03.2016 18:46 6,1 C 6,1 C 4,4 C 77 % 12 lf 995,6 hPa 0,0 l/m 0 min 2 min 0 W/m 64,9 km/h (8 Bft) 89,36 %
02.03.2016 18:48 6,1 C 5,6 C 3,9 C 79 % 15 lf 995,5 hPa 0,0 l/m 0 min 2 min 0 W/m 56,5 km/h (7 Bft) 96,43 %
02.03.2016 18:50 5,9 C 5,0 C 3,3 C 80 % 15 lf 995,6 hPa 0,0 l/m 0 min 2 min 0 W/m 50,2 km/h (7 Bft) 91,49 %
02.03.2016 18:52 5,8 C 4,4 C 3,3 C 81 % 15 lf 995,7 hPa 0,0 l/m 0 min 2 min 0 W/m 50,2 km/h (7 Bft) 91,49 %
02.03.2016 18:54 5,6 C 4,4 C 2,8 C 82 % 15 lf 995,8 hPa 0,0 l/m 0 min 2 min 0 W/m 37,7 km/h (5 Bft) 95,74 %
02.03.2016 18:56 5,4 C 3,9 C 2,8 C 83 % 15 lf 995,8 hPa 0,0 l/m 0 min 2 min 0 W/m 39,7 km/h (6 Bft) 93,62 %
02.03.2016 18:58 5,2 C 3,3 C 2,2 C 84 % 15 lf 995,8 hPa 0,2 l/m 0 min 2 min 0 W/m 31,4 km/h (5 Bft) 97,83 %
02.03.2016 19:00 5,1 C 3,3 C 2,2 C 85 % 15 lf 995,8 hPa 0,0 l/m 0 min 2 min 0 W/m 33,5 km/h (5 Bft) 97,87 %
02.03.2016 19:02 4,9 C 3,3 C 2,2 C 85 % 15 lf 995,7 hPa 0,2 l/m 0 min 2 min 0 W/m 43,9 km/h (6 Bft) 97,87 %
02.03.2016 19:04 4,8 C 3,3 C 2,2 C 86 % 15 lf 995,8 hPa 0,0 l/m 0 min 2 min 0 W/m 35,6 km/h (5 Bft) 95,74 %
02.03.2016 19:06 4,6 C 3,3 C 2,2 C 86 % 15 lf 995,7 hPa 0,0 l/m 0 min 2 min 0 W/m 31,4 km/h (5 Bft) 97,87 %
02.03.2016 19:08 4,4 C 3,3 C 2,2 C 86 % 15 lf 995,7 hPa 0,2 l/m 0 min 2 min 0 W/m 31,4 km/h (5 Bft) 97,83 %
02.03.2016 19:10 4,4 C 3,3 C 2,2 C 87 % 15 lf 995,7 hPa 0,0 l/m 0 min 2 min 0 W/m 23,0 km/h (4 Bft) 100,00 %
02.03.2016 19:12 4,3 C 3,3 C 2,2 C 87 % 15 lf 995,6 hPa 0,0 l/m 0 min 2 min 0 W/m 27,2 km/h (4 Bft) 97,87 %
02.03.2016 19:14 4,2 C 3,3 C 2,2 C 88 % 15 lf 995,5 hPa 0,0 l/m 0 min 2 min 0 W/m 33,5 km/h (5 Bft) 97,87 %
02.03.2016 19:16 4,2 C 3,3 C 2,2 C 88 % 15 lf 995,6 hPa 0,0 l/m 0 min 0 min 0 W/m 29,3 km/h (5 Bft) 97,87 %
02.03.2016 19:18 4,1 C 3,3 C 2,2 C 89 % 15 lf 995,5 hPa 0,0 l/m 0 min 0 min 0 W/m 27,2 km/h (4 Bft) 100,00 %
02.03.2016 19:20 4,1 C 3,3 C 2,2 C 89 % 15 lf 995,5 hPa 0,0 l/m 0 min 0 min 0 W/m 29,3 km/h (5 Bft) 93,48 %
02.03.2016 19:22 4,0 C 3,3 C 2,2 C 89 % 15 lf 995,5 hPa 0,0 l/m 0 min 0 min 0 W/m 23,0 km/h (4 Bft) 100,00 %
02.03.2016 19:24 3,9 C 3,3 C 2,2 C 89 % 15 lf 995,6 hPa 0,0 l/m 0 min 0 min 0 W/m 18,8 km/h (3 Bft) 97,87 %
02.03.2016 19:26 3,9 C 3,3 C 1,7 C 89 % 15 lf 995,6 hPa 0,0 l/m 0 min 0 min 0 W/m 18,8 km/h (3 Bft) 100,00 %
02.03.2016 19:28 3,9 C 3,3 C 1,7 C 90 % 15 lf 995,7 hPa 0,0 l/m 0 min 0 min 0 W/m 31,4 km/h (5 Bft) 97,87 %
02.03.2016 19:30 3,8 C 3,3 C 1,7 C 90 % 15 lf 995,7 hPa 0,0 l/m 0 min 0 min 0 W/m 12,6 km/h (3 Bft) 100,00 %
02.03.2016 19:32 3,8 C 3,3 C 1,7 C 90 % 15 lf 995,7 hPa 0,0 l/m 0 min 0 min 0 W/m 33,5 km/h (5 Bft) 100,00 %
02.03.2016 19:34 3,8 C 3,3 C 1,7 C 90 % 15 lf 995,7 hPa 0,0 l/m 0 min 0 min 0 W/m 27,2 km/h (4 Bft) 98,11 %
02.03.2016 19:36 3,7 C 3,3 C 1,7 C 90 % 15 lf 995,6 hPa 0,0 l/m 0 min 0 min 0 W/m 27,2 km/h (4 Bft) 100,00 %
02.03.2016 19:38 3,7 C 3,3 C 1,7 C 90 % 15 lf 995,6 hPa 0,0 l/m 0 min 0 min 0 W/m 27,2 km/h (4 Bft) 97,87 %
02.03.2016 19:40 3,7 C 3,3 C 1,7 C 90 % 15 lf 995,7 hPa 0,0 l/m 0 min 0 min 0 W/m 29,3 km/h (5 Bft) 100,00 %
02.03.2016 19:42 3,6 C 3,3 C 1,7 C 91 % 15 lf 995,8 hPa 0,0 l/m 0 min 0 min 0 W/m 25,1 km/h (4 Bft) 97,87 %
02.03.2016 19:44 3,6 C 3,3 C 1,7 C 91 % 15 lf 995,7 hPa 0,0 l/m 0 min 0 min 0 W/m 20,9 km/h (4 Bft) 100,00 %
02.03.2016 19:46 3,6 C 3,3 C 1,7 C 91 % 15 lf 995,7 hPa 0,0 l/m 0 min 0 min 0 W/m 29,3 km/h (5 Bft) 100,00 %
02.03.2016 19:48 3,6 C 3,3 C 1,7 C 91 % 15 lf 995,7 hPa 0,0 l/m 0 min 0 min 0 W/m 20,9 km/h (4 Bft) 97,87 %
02.03.2016 19:50 3,6 C 3,3 C 2,2 C 91 % 15 lf 995,7 hPa 0,0 l/m 0 min 0 min 0 W/m 29,3 km/h (5 Bft) 95,74 %
02.03.2016 19:52 3,6 C 3,3 C 2,2 C 91 % 15 lf 995,7 hPa 0,0 l/m 0 min 0 min 0 W/m 25,1 km/h (4 Bft) 95,74 %
02.03.2016 19:54 3,6 C 3,3 C 2,2 C 91 % 15 lf 995,7 hPa 0,0 l/m 0 min 0 min 0 W/m 23,0 km/h (4 Bft) 97,87 %
02.03.2016 19:56 3,6 C 3,3 C 2,2 C 91 % 15 lf 995,7 hPa 0,0 l/m 0 min 0 min 0 W/m 20,9 km/h (4 Bft) 93,48 %
02.03.2016 19:58 3,6 C 3,3 C 2,2 C 91 % 15 lf 995,7 hPa 0,0 l/m 0 min 0 min 0 W/m 18,8 km/h (3 Bft) 95,74 %
02.03.2016 20:00 3,6 C 3,3 C 2,2 C 92 % 15 lf 995,6 hPa 0,0 l/m 0 min 0 min 0 W/m 20,9 km/h (4 Bft) 94,00 %
02.03.2016 20:02 3,6 C 3,3 C 2,2 C 92 % 15 lf 995,6 hPa 0,0 l/m 0 min 0 min 0 W/m 27,2 km/h (4 Bft) 91,49 %
02.03.2016 20:04 3,6 C 3,3 C 2,2 C 92 % 15 lf 995,6 hPa 0,0 l/m 0 min 0 min 0 W/m 25,1 km/h (4 Bft) 93,62 %
02.03.2016 20:06 3,5 C 3,3 C 2,2 C 92 % 15 lf 995,7 hPa 0,0 l/m 0 min 0 min 0 W/m 27,2 km/h (4 Bft) 97,87 %
02.03.2016 20:08 3,5 C 3,3 C 2,2 C 92 % 15 lf 995,7 hPa 0,0 l/m 0 min 0 min 0 W/m 20,9 km/h (4 Bft) 94,59 %
02.03.2016 20:10 3,5 C 3,3 C 2,2 C 92 % 15 lf 995,7 hPa 0,0 l/m 0 min 0 min 0 W/m 20,9 km/h (4 Bft) 91,49 %
02.03.2016 20:12 3,5 C 3,3 C 2,2 C 92 % 15 lf 995,6 hPa 0,0 l/m 0 min 0 min 0 W/m 29,3 km/h (5 Bft) 95,74 %
02.03.2016 20:14 3,5 C 3,3 C 2,2 C 92 % 15 lf 995,7 hPa 0,0 l/m 0 min 0 min 0 W/m 25,1 km/h (4 Bft) 93,62 %
02.03.2016 20:16 3,5 C 3,3 C 1,7 C 92 % 15 lf 995,7 hPa 0,0 l/m 0 min 0 min 0 W/m 29,3 km/h (5 Bft) 93,62 %
02.03.2016 20:18 3,5 C 3,3 C 1,7 C 92 % 15 lf 995,6 hPa 0,0 l/m 0 min 0 min 0 W/m 29,3 km/h (5 Bft) 91,30 %
02.03.2016 20:20 3,5 C 3,3 C 1,7 C 92 % 15 lf 995,6 hPa 0,0 l/m 0 min 0 min 0 W/m 16,7 km/h (3 Bft) 97,87 %
02.03.2016 20:22 3,4 C 3,3 C 1,7 C 92 % 15 lf 995,6 hPa 0,0 l/m 0 min 0 min 0 W/m 29,3 km/h (5 Bft) 95,74 %
02.03.2016 20:24 3,4 C 3,3 C 1,7 C 92 % 15 lf 995,6 hPa 0,0 l/m 0 min 0 min 0 W/m 20,9 km/h (4 Bft) 95,74 %
02.03.2016 20:26 3,4 C 3,3 C 1,7 C 92 % 15 lf 995,6 hPa 0,0 l/m 0 min 0 min 0 W/m 25,1 km/h (4 Bft) 93,62 %
02.03.2016 20:28 3,4 C 3,3 C 1,7 C 92 % 15 lf 995,7 hPa 0,0 l/m 0 min 0 min 0 W/m 23,0 km/h (4 Bft) 97,87 %
02.03.2016 20:30 3,4 C 3,3 C 1,7 C 92 % 15 lf 995,6 hPa 0,0 l/m 0 min 0 min 0 W/m 27,2 km/h (4 Bft) 95,65 %
02.03.2016 20:32 3,4 C 3,3 C 1,7 C 92 % 15 lf 995,5 hPa 0,0 l/m 0 min 0 min 0 W/m 20,9 km/h (4 Bft) 97,87 %
02.03.2016 20:34 3,4 C 3,3 C 1,7 C 92 % 15 lf 995,5 hPa 0,0 l/m 0 min 0 min 0 W/m 12,6 km/h (3 Bft) 93,62 %
02.03.2016 20:36 3,4 C 3,3 C 1,7 C 92 % 15 lf 995,5 hPa 0,0 l/m 0 min 0 min 0 W/m 27,2 km/h (4 Bft) 93,62 %
02.03.2016 20:38 3,4 C 3,3 C 1,7 C 92 % 15 lf 995,4 hPa 0,0 l/m 0 min 0 min 0 W/m 23,0 km/h (4 Bft) 97,87 %
02.03.2016 20:40 3,4 C 3,3 C 1,7 C 92 % 15 lf 995,5 hPa 0,0 l/m 0 min 0 min 0 W/m 18,8 km/h (3 Bft) 97,87 %
02.03.2016 20:42 3,4 C 3,3 C 2,2 C 92 % 15 lf 995,5 hPa 0,0 l/m 0 min 0 min 0 W/m 29,3 km/h (5 Bft) 95,65 %
02.03.2016 20:44 3,4 C 3,3 C 2,2 C 92 % 15 lf 995,4 hPa 0,0 l/m 0 min 0 min 0 W/m 23,0 km/h (4 Bft) 100,00 %
02.03.2016 20:46 3,4 C 3,3 C 1,7 C 91 % 15 lf 995,4 hPa 0,0 l/m 0 min 0 min 0 W/m 31,4 km/h (5 Bft) 93,62 %
02.03.2016 20:48 3,5 C 3,3 C 2,2 C 91 % 15 lf 995,4 hPa 0,0 l/m 0 min 0 min 0 W/m 29,3 km/h (5 Bft) 95,74 %
02.03.2016 20:50 3,5 C 3,3 C 2,2 C 91 % 15 lf 995,4 hPa 0,0 l/m 0 min 0 min 0 W/m 31,4 km/h (5 Bft) 97,87 %
02.03.2016 20:52 3,5 C 3,3 C 2,2 C 91 % 14 lf 995,4 hPa 0,0 l/m 0 min 0 min 0 W/m 20,9 km/h (4 Bft) 96,23 %
02.03.2016 20:54 3,6 C 3,3 C 2,2 C 91 % 14 lf 995,4 hPa 0,0 l/m 0 min 0 min 0 W/m 18,8 km/h (3 Bft) 95,65 %
02.03.2016 20:56 3,6 C 3,3 C 2,2 C 91 % 14 lf 995,4 hPa 0,0 l/m 0 min 0 min 0 W/m 35,6 km/h (5 Bft) 95,74 %
02.03.2016 20:58 3,6 C 3,3 C 2,2 C 91 % 13 lf 995,4 hPa 0,0 l/m 0 min 0 min 0 W/m 27,2 km/h (4 Bft) 95,74 %
02.03.2016 21:00 3,6 C 3,3 C 2,2 C 91 % 12 lf 995,3 hPa 0,0 l/m 0 min 0 min 0 W/m 27,2 km/h (4 Bft) 95,74 %
02.03.2016 21:02 3,6 C 3,3 C 2,2 C 91 % 11 lf 995,3 hPa 0,0 l/m 0 min 0 min 0 W/m 20,9 km/h (4 Bft) 95,74 %
02.03.2016 21:04 3,6 C 3,3 C 2,2 C 91 % 11 lf 995,2 hPa 0,0 l/m 0 min 0 min 0 W/m 27,2 km/h (4 Bft) 95,74 %
02.03.2016 21:06 3,7 C 3,3 C 2,2 C 91 % 9 lf 995,3 hPa 0,0 l/m 0 min 0 min 0 W/m 33,5 km/h (5 Bft) 97,83 %
02.03.2016 21:08 3,7 C 3,3 C 2,2 C 91 % 8 lf 995,3 hPa 0,0 l/m 0 min 0 min 0 W/m 23,0 km/h (4 Bft) 95,74 %
02.03.2016 21:10 3,7 C 3,3 C 2,2 C 90 % 6 lf 995,3 hPa 0,0 l/m 0 min 0 min 0 W/m 33,5 km/h (5 Bft) 95,74 %
02.03.2016 21:12 3,7 C 3,3 C 2,2 C 90 % 4 lf 995,2 hPa 0,0 l/m 0 min 0 min 0 W/m 23,0 km/h (4 Bft) 95,74 %
02.03.2016 21:14 3,7 C 3,3 C 2,2 C 90 % 4 lf 995,3 hPa 0,0 l/m 0 min 0 min 0 W/m 25,1 km/h (4 Bft) 95,74 %
02.03.2016 21:16 3,7 C 3,3 C 2,2 C 90 % 3 lf 995,3 hPa 0,0 l/m 0 min 0 min 0 W/m 29,3 km/h (5 Bft) 95,74 %
02.03.2016 21:18 3,7 C 3,3 C 2,2 C 90 % 2 lf 995,3 hPa 0,0 l/m 0 min 0 min 0 W/m 33,5 km/h (5 Bft) 97,83 %
02.03.2016 21:20 3,8 C 3,3 C 2,2 C 90 % 1 lf 995,3 hPa 0,0 l/m 0 min 0 min 0 W/m 18,8 km/h (3 Bft) 93,62 %
02.03.2016 21:22 3,8 C 3,3 C 2,2 C 90 % 1 lf 995,3 hPa 0,0 l/m 0 min 0 min 0 W/m 20,9 km/h (4 Bft) 97,87 %
02.03.2016 21:24 3,8 C 3,3 C 2,2 C 89 % 0 lf 995,4 hPa 0,0 l/m 0 min 0 min 0 W/m 25,1 km/h (4 Bft) 97,87 %
02.03.2016 21:26 3,8 C 3,3 C 2,2 C 89 % 0 lf 995,3 hPa 0,0 l/m 0 min 0 min 0 W/m 35,6 km/h (5 Bft) 97,87 %
02.03.2016 21:28 3,9 C 3,3 C 2,2 C 89 % 0 lf 995,3 hPa 0,0 l/m 0 min 0 min 0 W/m 29,3 km/h (5 Bft) 97,87 %
02.03.2016 21:30 3,9 C 3,3 C 2,2 C 89 % 0 lf 995,4 hPa 0,0 l/m 0 min 0 min 0 W/m 31,4 km/h (5 Bft) 100,00 %
02.03.2016 21:32 3,9 C 3,3 C 2,2 C 89 % 0 lf 995,4 hPa 0,0 l/m 0 min 0 min 0 W/m 37,7 km/h (5 Bft) 97,87 %
02.03.2016 21:34 3,9 C 3,3 C 2,2 C 89 % 0 lf 995,3 hPa 0,0 l/m 0 min 0 min 0 W/m 25,1 km/h (4 Bft) 100,00 %
02.03.2016 21:36 3,9 C 3,9 C 2,2 C 89 % 0 lf 995,5 hPa 0,0 l/m 0 min 0 min 0 W/m 31,4 km/h (5 Bft) 97,87 %
02.03.2016 21:38 3,9 C 3,9 C 2,2 C 89 % 0 lf 995,4 hPa 0,0 l/m 0 min 0 min 0 W/m 33,5 km/h (5 Bft) 95,74 %
02.03.2016 21:40 3,9 C 3,9 C 2,2 C 89 % 0 lf 995,4 hPa 0,0 l/m 0 min 0 min 0 W/m 27,2 km/h (4 Bft) 95,65 %
02.03.2016 21:42 3,9 C 3,9 C 2,2 C 88 % 0 lf 995,3 hPa 0,0 l/m 0 min 0 min 0 W/m 23,0 km/h (4 Bft) 97,87 %
02.03.2016 21:44 3,9 C 3,9 C 2,2 C 88 % 0 lf 995,3 hPa 0,0 l/m 0 min 0 min 0 W/m 18,8 km/h (3 Bft) 97,87 %
02.03.2016 21:46 4,0 C 3,9 C 2,2 C 88 % 0 lf 995,4 hPa 0,0 l/m 0 min 0 min 0 W/m 23,0 km/h (4 Bft) 93,62 %
02.03.2016 21:48 4,0 C 3,9 C 2,2 C 88 % 0 lf 995,4 hPa 0,0 l/m 0 min 0 min 0 W/m 20,9 km/h (4 Bft) 97,87 %
02.03.2016 21:50 4,0 C 3,9 C 2,2 C 88 % 0 lf 995,3 hPa 0,0 l/m 0 min 0 min 0 W/m 23,0 km/h (4 Bft) 97,87 %
02.03.2016 21:52 4,0 C 3,9 C 2,2 C 88 % 0 lf 995,3 hPa 0,0 l/m 0 min 0 min 0 W/m 20,9 km/h (4 Bft) 97,96 %
02.03.2016 21:54 4,0 C 3,9 C 2,2 C 88 % 0 lf 995,3 hPa 0,0 l/m 0 min 0 min 0 W/m 20,9 km/h (4 Bft) 97,87 %
02.03.2016 21:56 4,0 C 3,9 C 2,2 C 88 % 0 lf 995,4 hPa 0,0 l/m 0 min 0 min 0 W/m 27,2 km/h (4 Bft) 93,62 %
02.03.2016 21:58 4,0 C 3,9 C 2,2 C 88 % 0 lf 995,4 hPa 0,0 l/m 0 min 0 min 0 W/m 25,1 km/h (4 Bft) 97,87 %
02.03.2016 22:00 4,0 C 3,9 C 2,2 C 88 % 0 lf 995,4 hPa 0,0 l/m 0 min 0 min 0 W/m 25,1 km/h (4 Bft) 95,74 %
02.03.2016 22:02 4,0 C 3,9 C 2,2 C 88 % 0 lf 995,4 hPa 0,0 l/m 0 min 0 min 0 W/m 31,4 km/h (5 Bft) 97,87 %
02.03.2016 22:04 4,0 C 3,9 C 2,2 C 88 % 0 lf 995,4 hPa 0,0 l/m 0 min 0 min 0 W/m 31,4 km/h (5 Bft) 100,00 %
02.03.2016 22:06 4,0 C 3,9 C 2,2 C 88 % 0 lf 995,4 hPa 0,0 l/m 0 min 0 min 0 W/m 31,4 km/h (5 Bft) 97,37 %
02.03.2016 22:08 4,1 C 3,9 C 2,2 C 88 % 0 lf 995,4 hPa 0,0 l/m 0 min 0 min 0 W/m 20,9 km/h (4 Bft) 95,74 %
02.03.2016 22:10 4,1 C 3,9 C 2,2 C 87 % 0 lf 995,4 hPa 0,0 l/m 0 min 0 min 0 W/m 23,0 km/h (4 Bft) 93,62 %
02.03.2016 22:12 4,1 C 3,9 C 2,2 C 87 % 0 lf 995,4 hPa 0,0 l/m 0 min 0 min 0 W/m 25,1 km/h (4 Bft) 93,62 %
02.03.2016 22:14 4,1 C 3,9 C 2,2 C 87 % 0 lf 995,4 hPa 0,0 l/m 0 min 0 min 0 W/m 29,3 km/h (5 Bft) 97,83 %
02.03.2016 22:16 4,1 C 3,9 C 2,2 C 87 % 0 lf 995,3 hPa 0,0 l/m 0 min 0 min 0 W/m 20,9 km/h (4 Bft) 97,87 %
02.03.2016 22:18 4,1 C 3,9 C 2,2 C 87 % 0 lf 995,3 hPa 0,0 l/m 0 min 0 min 0 W/m 31,4 km/h (5 Bft) 100,00 %
02.03.2016 22:20 4,1 C 4,4 C 2,2 C 87 % 0 lf 995,3 hPa 0,0 l/m 0 min 0 min 0 W/m 31,4 km/h (5 Bft) 95,74 %
02.03.2016 22:22 4,1 C 4,4 C 2,2 C 87 % 0 lf 995,4 hPa 0,0 l/m 0 min 0 min 0 W/m 29,3 km/h (5 Bft) 97,87 %
02.03.2016 22:24 4,1 C 4,4 C 2,2 C 87 % 0 lf 995,3 hPa 0,0 l/m 0 min 0 min 0 W/m 39,7 km/h (6 Bft) 95,74 %
02.03.2016 22:26 4,1 C 4,4 C 2,2 C 87 % 0 lf 995,4 hPa 0,0 l/m 0 min 0 min 0 W/m 39,7 km/h (6 Bft) 93,48 %
02.03.2016 22:28 4,1 C 4,4 C 2,2 C 87 % 0 lf 995,4 hPa 0,0 l/m 0 min 0 min 0 W/m 33,5 km/h (5 Bft) 95,74 %
02.03.2016 22:30 4,1 C 4,4 C 2,2 C 87 % 0 lf 995,4 hPa 0,0 l/m 0 min 0 min 0 W/m 29,3 km/h (5 Bft) 97,87 %
02.03.2016 22:32 4,1 C 4,4 C 2,2 C 87 % 0 lf 995,4 hPa 0,0 l/m 0 min 0 min 0 W/m 35,6 km/h (5 Bft) 95,74 %
02.03.2016 22:34 4,1 C 4,4 C 2,2 C 87 % 0 lf 995,4 hPa 0,0 l/m 0 min 0 min 0 W/m 33,5 km/h (5 Bft) 97,87 %
02.03.2016 22:36 4,1 C 4,4 C 2,2 C 87 % 0 lf 995,4 hPa 0,0 l/m 0 min 0 min 0 W/m 23,0 km/h (4 Bft) 97,87 %
02.03.2016 22:38 4,1 C 4,4 C 2,2 C 87 % 0 lf 995,5 hPa 0,0 l/m 0 min 0 min 0 W/m 20,9 km/h (4 Bft) 95,65 %
02.03.2016 22:40 4,1 C 4,4 C 2,2 C 87 % 0 lf 995,5 hPa 0,0 l/m 0 min 0 min 0 W/m 41,8 km/h (6 Bft) 97,87 %
02.03.2016 22:42 4,1 C 4,4 C 2,2 C 87 % 0 lf 995,4 hPa 0,0 l/m 0 min 0 min 0 W/m 39,7 km/h (6 Bft) 97,87 %
02.03.2016 22:44 4,1 C 4,4 C 2,2 C 87 % 0 lf 995,5 hPa 0,0 l/m 0 min 0 min 0 W/m 29,3 km/h (5 Bft) 97,87 %
02.03.2016 22:46 4,1 C 4,4 C 2,2 C 87 % 0 lf 995,5 hPa 0,0 l/m 0 min 0 min 0 W/m 33,5 km/h (5 Bft) 97,87 %
02.03.2016 22:48 4,1 C 4,4 C 2,2 C 87 % 1 lf 995,4 hPa 0,0 l/m 0 min 0 min 0 W/m 35,6 km/h (5 Bft) 97,87 %
02.03.2016 22:50 4,1 C 4,4 C 2,2 C 87 % 0 lf 995,5 hPa 0,0 l/m 0 min 0 min 0 W/m 37,7 km/h (5 Bft) 97,83 %
02.03.2016 22:52 4,1 C 4,4 C 2,2 C 87 % 0 lf 995,5 hPa 0,0 l/m 0 min 0 min 0 W/m 41,8 km/h (6 Bft) 93,62 %
02.03.2016 22:54 4,0 C 4,4 C 2,2 C 87 % 0 lf 995,6 hPa 0,0 l/m 0 min 0 min 0 W/m 29,3 km/h (5 Bft) 93,62 %
02.03.2016 22:56 4,0 C 4,4 C 2,2 C 87 % 0 lf 995,6 hPa 0,0 l/m 0 min 0 min 0 W/m 39,7 km/h (6 Bft) 93,62 %
02.03.2016 22:58 4,0 C 4,4 C 2,2 C 87 % 0 lf 995,6 hPa 0,0 l/m 0 min 0 min 0 W/m 27,2 km/h (4 Bft) 95,74 %
02.03.2016 23:00 4,0 C 4,4 C 2,2 C 87 % 0 lf 995,6 hPa 0,0 l/m 0 min 0 min 0 W/m 31,4 km/h (5 Bft) 95,74 %
02.03.2016 23:02 4,0 C 3,9 C 2,2 C 87 % 1 lf 995,5 hPa 0,0 l/m 0 min 0 min 0 W/m 27,2 km/h (4 Bft) 97,83 %
02.03.2016 23:04 3,9 C 4,4 C 2,2 C 87 % 1 lf 995,5 hPa 0,0 l/m 0 min 0 min 0 W/m 27,2 km/h (4 Bft) 93,62 %
02.03.2016 23:06 4,0 C 3,9 C 2,2 C 87 % 4 lf 995,5 hPa 0,0 l/m 0 min 2 min 0 W/m 27,2 km/h (4 Bft) 93,62 %
02.03.2016 23:08 3,9 C 3,9 C 2,2 C 87 % 4 lf 995,7 hPa 0,0 l/m 0 min 2 min 0 W/m 35,6 km/h (5 Bft) 95,74 %
02.03.2016 23:10 3,9 C 3,9 C 2,2 C 87 % 12 lf 995,6 hPa 0,0 l/m 0 min 2 min 0 W/m 29,3 km/h (5 Bft) 89,36 %
02.03.2016 23:12 3,9 C 3,9 C 2,2 C 87 % 14 lf 995,8 hPa 0,0 l/m 0 min 2 min 0 W/m 37,7 km/h (5 Bft) 93,48 %
02.03.2016 23:14 3,9 C 3,9 C 2,2 C 87 % 15 lf 995,7 hPa 0,0 l/m 0 min 2 min 0 W/m 29,3 km/h (5 Bft) 95,74 %
02.03.2016 23:16 3,9 C 3,9 C 2,2 C 87 % 15 lf 995,7 hPa 0,0 l/m 0 min 2 min 0 W/m 35,6 km/h (5 Bft) 93,62 %
02.03.2016 23:18 3,9 C 3,3 C 2,2 C 87 % 15 lf 995,7 hPa 0,0 l/m 0 min 2 min 0 W/m 27,2 km/h (4 Bft) 91,49 %
02.03.2016 23:20 3,9 C 3,3 C 2,2 C 87 % 15 lf 995,7 hPa 0,0 l/m 0 min 2 min 0 W/m 31,4 km/h (5 Bft) 91,49 %
02.03.2016 23:22 3,9 C 3,3 C 2,2 C 87 % 15 lf 995,7 hPa 0,0 l/m 0 min 2 min 0 W/m 20,9 km/h (4 Bft) 91,49 %
02.03.2016 23:24 3,9 C 3,3 C 2,2 C 87 % 15 lf 995,7 hPa 0,0 l/m 0 min 2 min 0 W/m 27,2 km/h (4 Bft) 93,48 %
02.03.2016 23:26 3,8 C 3,3 C 1,7 C 88 % 15 lf 995,7 hPa 0,0 l/m 0 min 2 min 0 W/m 20,9 km/h (4 Bft) 87,23 %
02.03.2016 23:28 3,8 C 3,3 C 1,7 C 88 % 15 lf 995,8 hPa 0,0 l/m 0 min 2 min 0 W/m 29,3 km/h (5 Bft) 89,36 %
02.03.2016 23:30 3,8 C 3,3 C 1,7 C 88 % 15 lf 995,9 hPa 0,0 l/m 0 min 2 min 0 W/m 35,6 km/h (5 Bft) 91,49 %
02.03.2016 23:32 3,7 C 2,8 C 1,7 C 88 % 15 lf 995,9 hPa 0,0 l/m 0 min 2 min 0 W/m 39,7 km/h (6 Bft) 91,49 %
02.03.2016 23:34 3,7 C 2,8 C 1,7 C 88 % 15 lf 995,9 hPa 0,0 l/m 0 min 2 min 0 W/m 39,7 km/h (6 Bft) 91,49 %
02.03.2016 23:36 3,6 C 2,8 C 1,7 C 88 % 15 lf 995,9 hPa 0,2 l/m 0 min 2 min 0 W/m 33,5 km/h (5 Bft) 86,96 %
02.03.2016 23:38 3,6 C 2,8 C 1,7 C 88 % 15 lf 996,0 hPa 0,0 l/m 0 min 2 min 0 W/m 31,4 km/h (5 Bft) 91,49 %
02.03.2016 23:40 3,5 C 2,8 C 1,7 C 88 % 15 lf 996,1 hPa 0,0 l/m 0 min 2 min 0 W/m 23,0 km/h (4 Bft) 91,49 %
02.03.2016 23:42 3,4 C 2,8 C 1,7 C 89 % 15 lf 996,0 hPa 0,0 l/m 0 min 0 min 0 W/m 29,3 km/h (5 Bft) 91,49 %
02.03.2016 23:44 3,4 C 2,8 C 1,7 C 89 % 15 lf 996,1 hPa 0,0 l/m 0 min 0 min 0 W/m 27,2 km/h (4 Bft) 89,36 %
02.03.2016 23:46 3,4 C 2,8 C 1,7 C 89 % 15 lf 996,0 hPa 0,0 l/m 0 min 2 min 0 W/m 35,6 km/h (5 Bft) 93,62 %
02.03.2016 23:48 3,3 C 2,8 C 1,7 C 89 % 15 lf 996,0 hPa 0,0 l/m 0 min 2 min 0 W/m 25,1 km/h (4 Bft) 91,30 %
02.03.2016 23:50 3,3 C 2,8 C 1,7 C 90 % 15 lf 996,0 hPa 0,0 l/m 0 min 0 min 0 W/m 33,5 km/h (5 Bft) 91,49 %
02.03.2016 23:52 3,3 C 2,8 C 1,7 C 90 % 15 lf 996,0 hPa 0,0 l/m 0 min 0 min 0 W/m 33,5 km/h (5 Bft) 87,72 %
02.03.2016 23:54 3,2 C 2,8 C 1,7 C 90 % 15 lf 996,0 hPa 0,0 l/m 0 min 0 min 0 W/m 23,0 km/h (4 Bft) 95,74 %
02.03.2016 23:56 3,2 C 2,8 C 1,7 C 90 % 15 lf 996,1 hPa 0,0 l/m 0 min 2 min 0 W/m 27,2 km/h (4 Bft) 93,62 %
02.03.2016 23:58 3,2 C 2,8 C 1,7 C 90 % 15 lf 996,1 hPa 0,0 l/m 0 min 2 min 0 W/m 25,1 km/h (4 Bft) 97,87 %
_ Min-Zeit 23:54 23:32 19:26 14:48 05:32 18:12 - - - - 17:28 10:50
Minimum _ 3,2 C 2,8 C 1,7 C 61 % 0 lf 994,4 hPa - - - - 8,4 km/h (2 Bft) 86,84 %
_ Max-Zeit 14:10 13:52 14:02 00:00 00:00 00:00 01:52 10:44 01:22 12:44 18:46 00:54
Maximum _ 9,5 C 17,8 C 7,8 C 98 % 15 lf 1005,6 hPa 0,2 l/m 2 min 2 min 773 W/m 64,9 km/h
W-SW (8 Bft)
100,00 %
Durchschnitt _ 6,3 C 7,1 C 4,6 C 87 % 9 lf 998,4 hPa #3,6 l/m #3:56 h #5:25 h 215 W/m 26,7 km/h (4 Bft) 95,94 %
© 2016 W. Hausmann